GFSFLT1_850_thetae_000.txt.gz
Theta_e
331 330 327 327 327 315 314 314 313 315 318 318 318 317 314 313 312 310 310 313 317 323 326 324 316 317 316 320 325 325 323 323 320
331 329 329 330 321 315 315 315 316 316 316 317 318 318 317 317 316 315 314 313 315 318 325 326 326 321 315 315 317 321 321 320 320
329 331 331 327 316 316 316 317 317 317 317 318 318 319 319 320 321 322 321 320 317 317 318 327 326 323 324 323 325 325 324 323 325
327 329 325 318 317 317 317 318 319 320 320 322 322 322 322 324 325 325 326 324 325 324 323 324 327 327 327 322 321 324 325 327 326
321 318 316 316 317 319 322 324 327 328 328 329 330 330 330 330 330 329 329 329 329 329 327 327 328 328 328 328 326 323 321 326 327
316 316 317 321 323 325 326 327 328 329 330 331 330 330 330 329 329 329 329 329 330 329 329 329 329 328 328 328 327 328 326 324 323
320 322 324 327 328 328 330 331 330 329 329 329 328 327 328 327 329 328 328 328 329 329 328 328 328 328 327 327 327 328 329 330 331
326 328 330 330 330 331 329 329 329 328 328 327 325 323 322 323 323 323 325 326 327 326 327 327 327 328 327 327 326 324 325 326 328
329 330 332 331 332 330 329 328 328 326 326 323 322 319 318 318 321 323 321 316 320 322 324 323 324 325 325 325 325 326 326 327 325
332 333 332 331 329 328 327 327 325 321 315 313 313 313 313 314 319 322 321 315 315 317 319 322 323 325 327 328 328 327 325 325 321
332 330 329 327 327 326 323 317 313 312 312 312 311 310 310 311 312 313 311 312 317 318 318 318 319 320 325 328 326 324 322 322 323
330 328 327 327 320 313 312 312 311 310 308 307 305 305 306 306 306 308 313 314 313 313 314 314 316 317 318 318 318 320 321 322 321
327 326 315 310 311 311 310 308 306 305 304 304 304 304 304 305 309 308 311 312 311 310 310 310 311 312 313 312 311 312 313 314 314
317 310 310 309 307 306 305 304 303 303 303 302 303 303 305 305 303 306 306 304 303 304 306 307 308 308 306 305 306 306 306 309 312
310 309 308 308 307 305 303 303 302 300 300 301 301 301 303 300 306 300 300 299 299 301 299 298 299 299 299 300 300 299 303 308 309
309 309 309 308 307 304 302 301 301 299 298 299 300 299 298 301 304 298 298 297 298 297 297 297 296 297 296 296 298 300 301 304 306
310 311 310 309 306 303 301 300 299 298 296 296 297 297 297 300 296 298 295 298 296 296 295 295 295 294 295 296 296 293 296 298 302
311 311 309 307 303 301 299 298 297 297 296 294 294 295 297 294 296 294 296 294 294 293 293 293 294 294 294 292 292 294 296 298 301
311 310 308 305 301 299 297 296 296 296 295 294 293 293 293 294 294 293 292 293 292 292 292 292 292 292 291 292 294 296 295 297 298
310 308 306 303 300 298 296 296 295 294 293 293 293 293 292 291 291 291 292 291 291 291 291 291 291 291 292 293 294 294 294 296 296

GFSFLT1_850_thetae_003.txt.gz
Theta_e
330 329 328 329 323 315 315 315 315 315 316 316 316 317 316 316 315 315 312 311 312 320 324 327 328 325 321 322 325 326 326 326 325
331 330 328 329 321 315 316 316 316 317 317 317 318 320 319 320 320 321 321 320 317 316 318 326 326 328 329 330 326 328 330 327 329
330 330 331 329 317 316 317 318 318 319 319 320 321 321 321 322 325 326 326 326 324 323 321 321 326 330 328 325 324 325 328 326 325
326 327 326 318 316 317 319 322 324 326 327 327 328 329 329 329 329 329 329 328 328 328 328 327 327 328 330 328 327 326 323 322 326
324 322 316 316 318 322 326 327 328 329 330 330 330 330 329 329 328 328 328 329 329 329 328 328 328 329 329 328 327 329 327 329 324
316 315 316 321 325 327 329 330 330 330 329 329 328 328 326 326 325 325 325 327 327 328 328 327 328 328 327 327 327 327 327 327 329
318 320 322 327 328 329 330 329 329 328 327 327 326 325 323 322 323 323 324 325 324 325 326 328 328 328 328 329 329 329 327 326 327
323 324 327 328 330 332 330 328 327 327 326 325 324 320 320 318 318 321 321 321 318 316 321 326 326 325 325 325 325 324 326 327 327
327 329 330 330 330 329 327 326 326 325 324 321 316 313 313 313 313 315 319 322 320 315 317 318 321 322 323 325 325 326 329 328 328
329 333 330 330 328 327 326 325 323 316 311 311 311 311 310 309 310 312 314 315 313 313 315 318 320 322 323 327 328 326 325 324 324
331 330 328 327 326 325 321 314 311 311 311 310 308 306 305 305 306 306 309 311 312 313 313 314 315 317 319 320 323 323 322 321 320
327 327 327 326 320 311 310 310 310 307 306 305 304 304 304 304 305 307 309 311 311 311 310 310 310 312 312 314 315 315 316 317 318
326 326 320 309 310 309 307 306 304 303 303 303 303 303 303 304 306 307 307 308 307 306 307 307 307 307 308 309 309 308 310 308 308
323 310 309 308 308 307 306 304 303 302 302 302 302 302 302 306 302 302 302 302 300 300 302 301 300 300 300 300 299 299 302 308 309
309 309 309 309 309 307 304 302 301 300 300 301 301 300 302 303 300 301 299 299 298 299 297 297 297 297 297 297 297 297 297 298 303
310 310 310 310 308 304 302 300 300 299 299 299 300 299 299 298 301 301 298 298 297 298 296 296 296 296 296 296 296 296 296 301 299
311 311 311 309 305 302 300 298 298 297 296 296 296 296 297 299 302 297 298 296 296 296 295 295 295 295 295 295 294 294 293 297 301
312 311 310 307 303 300 298 297 296 295 295 293 293 294 294 293 295 294 294 294 294 294 294 293 293 293 293 293 293 293 294 297 300
311 310 308 306 302 300 298 296 296 294 293 293 293 292 292 291 292 292 293 292 292 292 292 292 292 292 291 291 292 292 294 297 298
310 308 307 305 302 299 297 296 294 293 292 292 292 292 291 290 290 289 290 291 291 291 290 290 290 290 290 291 292 292 292 294 295

GFSFLT1_850_thetae_006.txt.gz
Theta_e
330 328 328 328 318 315 315 315 315 315 316 317 317 317 318 318 319 319 319 317 315 313 316 321 327 328 327 320 321 326 324 329 328
331 330 328 328 323 317 317 317 317 317 317 318 318 319 319 320 322 325 325 325 324 321 319 317 326 328 326 327 329 326 326 328 327
331 330 329 330 321 318 318 319 320 322 322 325 325 326 327 328 328 328 327 327 326 325 325 324 323 322 328 328 328 325 325 325 327
328 327 327 323 318 318 322 325 327 328 328 329 329 329 329 329 328 328 328 329 329 328 329 328 328 328 327 328 329 330 330 328 323
325 326 320 317 319 323 326 327 328 328 329 329 329 329 328 327 326 325 327 328 328 328 328 329 328 327 327 327 327 327 327 327 327
320 318 317 321 324 326 328 329 329 329 328 327 327 326 325 323 322 324 322 324 326 327 327 327 327 328 329 329 328 327 327 327 326
318 319 320 325 327 329 329 328 328 327 327 326 325 324 321 320 318 318 320 321 321 320 320 324 327 329 329 328 328 328 329 328 328
322 323 326 328 329 332 329 327 326 325 325 324 323 319 314 313 313 313 314 318 320 321 317 315 320 321 322 323 324 324 325 326 327
327 328 329 328 329 328 327 326 326 325 322 316 312 311 311 311 311 309 310 313 316 316 314 318 320 320 321 323 323 327 327 327 328
328 331 328 327 327 326 326 324 318 313 311 311 311 310 308 306 305 305 307 309 310 312 315 317 318 319 321 324 325 326 325 324 324
332 328 327 325 325 325 320 310 310 310 310 308 305 304 304 304 304 305 307 309 310 310 311 311 312 313 315 317 318 320 322 321 320
325 325 325 326 319 310 309 308 307 306 305 303 303 303 303 303 304 306 307 308 309 309 309 309 308 309 309 309 312 312 314 313 312
326 326 324 310 309 309 308 307 306 304 303 303 302 302 302 303 304 304 304 305 306 304 303 304 304 304 303 304 305 305 306 306 307
324 320 309 309 309 309 307 304 303 302 302 302 302 302 302 302 304 302 300 299 300 298 299 298 297 297 297 297 298 298 298 298 300
310 309 309 310 309 307 304 302 301 300 301 301 302 301 300 302 304 300 301 298 299 297 297 298 296 296 296 296 296 296 296 297 302
310 310 311 310 308 305 302 301 301 300 300 300 300 299 299 299 298 299 302 298 298 297 296 296 295 295 295 295 295 295 295 296 303
311 312 311 309 307 305 302 300 300 298 297 295 296 296 297 298 298 297 298 297 296 295 295 295 294 294 294 294 294 294 294 294 298
312 311 310 309 307 305 301 299 298 297 295 293 293 293 293 292 294 295 295 294 294 293 293 294 293 293 293 293 292 292 292 293 298
311 311 310 309 307 305 301 299 297 294 293 293 293 292 291 290 291 292 293 292 292 293 293 292 292 292 292 291 291 290 291 295 296
311 310 308 308 306 304 301 297 294 293 292 292 292 292 291 290 289 289 291 292 292 291 291 290 291 290 290 289 290 290 292 293 294

GFSFLT1_850_thetae_009.txt.gz
Theta_e
329 328 328 327 320 316 317 317 316 316 317 318 319 324 326 319 320 321 322 322 321 317 314 315 321 326 328 322 320 321 323 325 329
330 329 328 328 321 318 318 318 318 318 318 319 319 319 321 321 323 325 325 325 325 323 322 319 319 326 328 326 328 328 324 327 324
331 330 328 328 321 318 319 321 324 325 326 327 327 327 328 328 328 327 327 327 326 326 326 327 326 325 323 326 328 327 326 326 326
330 328 327 325 318 319 325 326 327 327 328 329 328 328 328 328 327 326 326 326 327 327 328 329 329 329 328 328 325 327 329 327 327
326 326 324 318 318 324 326 328 329 329 329 328 328 327 327 326 324 323 323 323 326 326 329 329 328 330 329 328 328 327 327 327 328
324 323 317 319 324 326 327 328 328 328 327 326 325 324 323 321 319 319 319 320 321 323 325 326 326 328 328 329 330 330 329 327 326
318 317 318 324 326 327 328 329 327 325 325 324 324 323 320 315 313 312 313 314 317 319 320 318 317 323 326 327 328 328 327 327 329
319 321 323 327 328 330 328 326 325 325 324 321 315 313 311 311 311 311 311 310 312 315 318 320 320 319 320 323 321 322 324 325 325
324 327 328 328 327 328 327 326 325 320 313 311 311 311 311 310 308 307 306 307 309 316 319 319 318 319 323 323 323 323 324 326 326
328 329 328 326 325 326 325 323 316 310 310 309 308 306 305 304 304 304 305 307 309 311 314 314 316 317 319 321 322 324 324 324 324
330 328 326 325 325 325 318 309 309 308 306 304 304 303 303 303 303 304 306 308 309 310 310 310 310 311 312 313 315 316 318 319 319
327 326 324 325 322 310 309 308 307 306 304 303 302 302 302 302 303 304 306 306 307 307 307 308 308 308 308 308 309 309 311 311 312
326 324 324 317 309 309 309 308 306 304 303 302 302 302 301 301 302 302 302 302 302 301 300 300 301 300 299 300 300 300 301 303 304
324 324 314 309 309 309 307 304 302 302 302 302 302 302 301 301 302 303 301 300 298 299 298 297 298 297 296 296 296 296 297 297 297
323 311 309 310 310 307 304 302 301 301 302 302 301 301 300 300 302 304 300 299 300 297 297 296 296 296 296 295 295 295 295 296 296
309 309 311 311 309 307 305 302 301 301 301 301 300 299 299 298 299 298 298 297 298 297 296 296 296 296 296 295 295 295 295 295 295
310 311 312 311 310 308 306 304 302 300 299 297 297 297 297 298 298 297 296 296 296 296 296 296 295 295 295 295 294 294 294 294 294
310 312 311 310 309 308 307 305 302 299 297 296 295 294 294 293 296 296 296 296 295 295 295 295 294 294 294 294 293 293 293 292 295
312 311 310 309 309 308 306 304 301 298 296 295 294 293 292 291 292 292 293 293 294 295 294 294 294 293 293 292 292 291 291 292 296
311 310 309 308 308 307 305 302 299 296 294 293 293 293 292 291 290 290 292 292 293 293 292 293 292 291 291 290 290 289 288 292 294

GFSFLT1_850_thetae_012.txt.gz
Theta_e
329 328 326 324 318 317 317 317 317 317 317 318 319 326 328 321 329 328 327 323 323 320 316 315 321 325 327 326 322 321 322 326 327
330 329 328 327 320 318 318 319 320 320 320 321 321 321 322 322 329 328 327 327 325 323 323 323 320 320 322 329 326 327 325 320 323
332 331 329 328 321 318 320 323 326 326 326 327 327 327 327 330 331 330 329 328 327 326 326 331 330 327 327 326 325 328 327 327 327
332 331 328 326 319 319 324 326 328 328 328 328 328 327 327 328 329 326 328 327 325 326 328 330 331 332 333 331 330 328 327 329 329
328 327 325 322 318 322 325 328 329 329 329 328 326 325 324 324 321 321 322 320 319 320 325 327 329 328 329 329 331 331 329 328 327
325 324 322 317 321 325 326 328 328 327 326 325 324 324 323 319 317 315 314 314 315 318 320 320 321 323 325 326 327 328 329 330 331
322 320 317 320 325 326 327 328 327 325 325 324 320 316 314 312 311 312 312 312 312 313 315 318 319 318 318 319 321 323 326 327 327
319 321 323 327 327 327 327 327 326 325 322 314 311 311 311 311 310 310 309 308 308 315 320 320 320 321 320 320 318 317 319 322 323
320 329 328 329 327 327 326 326 325 321 311 310 310 309 308 306 305 307 305 306 309 314 316 316 318 318 317 320 320 319 321 322 323
327 326 326 326 326 325 325 324 314 309 309 307 306 305 304 303 304 307 305 306 308 310 311 314 313 314 316 318 318 320 321 323 323
327 327 327 325 324 324 320 309 309 308 307 305 304 303 302 302 303 304 305 307 308 308 309 309 309 309 309 310 311 312 313 314 316
328 327 326 325 325 313 309 309 308 306 304 303 302 302 301 301 302 303 304 305 305 305 305 305 305 305 305 305 305 306 305 307 309
327 326 324 324 311 309 309 307 304 303 302 302 302 302 301 301 301 302 301 301 300 300 299 299 298 298 298 298 297 297 297 297 298
326 325 324 312 309 309 307 304 303 302 302 302 301 301 301 300 301 301 301 301 301 300 299 298 297 297 297 297 296 297 296 297 297
325 324 314 309 310 309 307 306 304 302 301 301 300 300 300 300 301 302 302 298 298 298 299 298 297 297 297 297 296 296 296 296 296
325 315 309 311 310 310 309 308 306 303 301 300 300 299 298 298 301 298 297 297 297 296 296 296 296 296 296 296 296 296 295 295 295
321 309 311 312 311 311 310 308 306 303 300 298 298 300 300 299 297 297 296 296 296 296 296 296 296 296 295 295 295 295 295 295 294
309 310 312 312 311 310 310 309 306 302 299 297 296 298 299 296 297 297 296 295 296 296 296 296 295 295 294 294 293 293 293 293 293
309 311 311 311 311 310 309 308 305 302 297 295 295 294 293 295 296 296 295 294 293 294 293 294 294 293 292 292 291 291 291 290 291
310 311 311 310 310 309 308 307 304 300 297 295 294 293 293 293 293 294 295 294 293 292 291 291 291 290 290 290 290 288 288 290 293

GFSFLT1_850_thetae_015.txt.gz
Theta_e
328 328 326 323 318 317 317 317 317 317 317 318 318 319 320 323 331 331 331 330 326 323 322 319 316 317 319 320 323 317 319 322 324
330 328 328 327 320 318 319 320 321 322 323 324 324 324 325 327 333 332 332 332 327 325 324 326 330 326 325 324 325 325 323 319 316
331 330 329 327 321 318 323 324 326 327 329 328 327 326 326 328 331 332 331 329 327 325 327 329 330 330 331 332 330 327 329 329 326
333 332 329 325 319 319 325 328 329 328 328 328 327 325 324 325 327 325 327 325 320 319 321 329 329 330 331 330 331 334 331 327 330
331 328 326 321 317 321 325 327 327 327 327 325 324 323 323 322 321 321 321 316 315 316 318 320 321 323 325 325 327 327 328 332 333
327 325 322 317 318 323 325 326 327 326 323 323 321 318 318 317 316 315 314 312 312 312 314 316 318 318 318 317 319 321 325 327 328
328 321 319 317 321 325 326 326 326 324 322 319 313 312 311 311 311 312 312 311 310 311 318 315 317 320 322 320 319 317 318 318 319
319 320 317 324 326 327 327 326 325 325 323 312 311 310 310 309 310 311 309 306 318 321 319 319 320 319 320 320 317 316 316 317 318
328 329 331 330 327 326 326 325 324 318 310 310 309 307 306 307 308 310 306 305 308 311 314 314 314 315 316 316 315 316 317 320 321
329 330 326 325 326 325 324 324 314 309 309 307 306 305 304 305 306 308 305 305 307 308 309 310 311 312 313 314 314 315 315 317 318
330 326 326 326 325 325 324 311 309 308 306 304 303 303 303 303 304 307 304 305 306 307 308 308 308 308 308 308 308 309 309 309 310
327 327 327 326 325 324 310 309 308 305 303 303 303 302 302 303 304 304 304 304 305 305 305 304 303 302 300 299 299 299 299 299 299
327 328 326 325 324 310 310 308 305 303 302 302 302 302 302 302 302 302 302 302 300 300 300 299 299 299 298 298 298 298 298 298 298
327 326 325 324 311 310 309 308 306 305 303 302 301 301 301 302 301 301 301 302 302 300 298 299 299 300 299 298 298 298 297 297 297
327 326 325 318 310 311 310 309 308 306 305 302 301 301 302 302 302 302 301 300 299 298 297 297 297 297 297 297 297 297 297 296 296
326 325 323 310 312 311 311 311 310 308 306 302 301 302 301 301 304 303 299 298 297 296 296 296 297 297 297 297 296 296 296 296 296
325 324 310 311 312 312 312 311 309 308 306 302 301 302 302 301 300 300 298 297 296 296 296 297 296 296 296 295 295 295 295 294 294
323 316 310 312 312 312 311 311 309 307 305 301 299 300 301 299 299 298 298 297 297 296 296 295 295 295 294 294 293 292 292 293 292
318 310 311 312 311 311 311 310 309 307 303 299 298 296 295 296 297 298 298 297 296 295 295 295 295 294 293 292 292 291 292 291 290
312 310 311 311 311 310 310 309 308 306 303 299 297 295 295 295 295 295 296 296 295 295 294 293 293 292 291 291 291 291 291 291 293

GFSFLT1_850_thetae_018.txt.gz
Theta_e
326 325 324 320 317 318 317 317 317 317 318 319 320 321 322 323 330 330 332 328 329 326 324 324 325 322 320 321 322 322 315 316 318
328 326 323 321 318 318 320 322 323 324 325 325 325 325 325 328 331 332 331 330 329 327 325 329 329 329 329 330 330 326 323 324 322
330 328 324 322 318 319 322 325 327 328 327 327 326 325 324 327 330 330 328 328 326 320 324 328 329 330 331 332 332 334 332 328 329
331 330 327 322 318 320 325 327 327 327 327 325 324 323 322 323 322 322 324 323 316 315 317 319 323 325 326 327 327 328 328 332 332
334 332 325 320 317 321 323 325 325 326 324 322 322 319 320 320 319 319 318 316 312 312 313 314 317 318 319 318 320 322 324 328 328
328 325 322 318 317 321 323 324 325 324 323 323 316 313 313 311 312 312 312 312 312 312 313 314 315 321 321 318 318 318 317 317 320
324 324 321 317 318 322 324 324 325 325 325 323 312 310 311 310 310 310 311 311 309 320 318 319 319 318 320 319 318 317 316 316 316
324 322 317 319 322 323 324 323 324 324 319 311 310 309 308 306 308 308 308 309 323 320 320 316 316 317 317 315 313 312 313 313 315
320 326 329 329 327 325 324 325 324 316 311 309 308 307 306 306 306 307 307 305 307 311 310 309 310 311 311 311 312 313 314 315 316
323 329 330 329 325 323 324 324 316 310 309 307 305 304 304 304 305 306 306 305 306 307 308 309 309 309 309 309 309 309 310 310 311
330 330 328 324 324 325 325 316 310 309 305 304 303 303 303 303 304 306 305 304 305 306 306 306 306 306 305 303 302 301 300 300 301
329 329 325 325 325 324 318 310 309 306 304 303 303 303 303 302 303 304 304 303 303 304 304 302 300 300 299 299 299 299 299 299 299
330 327 327 326 325 322 310 310 308 307 305 303 302 302 302 302 302 303 302 302 301 302 302 301 299 299 300 300 299 299 298 298 298
327 327 327 325 324 310 311 310 310 309 307 305 303 302 302 303 302 302 301 301 302 301 299 298 298 298 298 298 298 298 298 297 297
327 327 326 325 317 311 311 312 312 311 309 306 304 302 301 302 302 302 302 300 299 298 297 298 298 298 298 297 297 297 297 296 296
328 327 326 325 310 312 312 312 312 311 310 306 303 303 302 301 301 303 303 299 298 298 297 297 297 297 297 296 296 296 296 296 295
328 326 325 318 311 312 312 312 312 312 310 307 303 302 301 301 301 300 299 299 298 297 297 297 297 297 296 296 295 295 294 294 294
328 326 324 311 312 312 312 312 311 311 310 307 303 300 301 301 299 299 298 298 297 297 297 297 296 296 295 294 294 293 293 292 293
327 325 319 310 312 312 312 311 311 310 309 307 302 299 298 297 297 298 298 297 297 297 296 296 296 295 294 293 293 292 291 292 295
324 323 314 311 312 312 311 311 310 309 308 306 302 298 297 296 296 296 296 296 296 295 295 294 294 293 292 292 292 291 291 291 293

GFSFLT1_850_thetae_021.txt.gz
Theta_e
321 319 317 316 317 317 317 317 318 319 320 322 322 323 324 330 331 330 330 328 330 327 324 327 327 326 325 326 325 323 321 315 317
323 321 318 317 317 319 321 322 324 325 324 324 324 324 326 328 330 330 329 328 327 324 322 328 330 331 332 333 333 333 330 325 323
327 322 319 317 317 320 322 325 326 326 326 325 324 323 325 329 329 329 328 326 324 317 325 329 328 329 329 330 330 329 332 334 330
327 324 320 317 317 320 323 323 324 325 324 323 322 321 322 322 320 321 322 321 318 313 314 317 318 319 321 322 321 324 328 327 330
331 328 321 318 317 320 321 322 324 324 322 321 316 318 318 316 317 318 317 316 314 312 313 313 321 324 319 316 317 317 317 322 327
332 326 321 318 317 320 322 323 323 323 323 322 316 312 312 311 311 311 311 312 312 318 321 321 323 323 321 317 316 316 317 316 316
326 324 322 318 318 321 323 323 324 324 323 319 312 311 310 309 309 309 309 309 319 321 322 322 319 320 317 316 315 313 312 312 313
321 322 321 317 320 323 323 322 323 323 317 311 311 309 307 307 306 307 307 312 322 322 319 315 315 315 313 311 311 311 312 313 315
321 323 322 323 325 324 323 323 324 318 311 310 308 306 305 305 305 305 306 306 311 311 309 308 310 310 310 310 310 309 310 310 310
318 325 328 326 327 323 322 323 322 311 310 307 305 304 303 304 304 305 305 305 305 307 307 307 307 307 306 306 305 304 303 303 303
323 327 329 329 326 323 324 324 311 310 307 305 304 303 303 303 303 304 305 304 304 305 305 305 304 303 301 300 299 299 299 300 299
324 328 330 328 323 324 324 314 310 308 306 304 304 303 303 302 303 303 303 303 303 303 303 302 302 301 300 300 300 300 300 300 299
329 329 329 325 325 325 321 310 309 309 308 306 304 303 302 302 303 303 302 302 302 302 302 301 299 299 298 298 298 298 298 298 298
330 329 328 326 326 324 311 310 311 311 310 308 305 303 302 302 302 302 302 301 301 300 299 299 298 298 298 298 298 298 298 297 297
330 329 326 326 325 321 311 311 312 312 311 308 305 303 302 302 302 301 301 302 300 299 299 298 298 298 298 298 297 297 296 297 296
331 328 326 325 325 314 312 312 313 312 311 309 305 303 302 302 302 302 302 302 299 299 298 298 298 298 297 297 296 296 295 295 295
331 328 327 326 325 311 312 313 313 312 312 310 306 303 302 302 302 301 300 300 299 298 298 297 297 297 296 296 295 294 294 293 294
330 328 326 325 321 311 313 313 313 312 312 311 308 303 301 301 299 299 299 298 298 298 297 297 296 296 295 294 294 293 293 292 295
329 328 326 323 316 312 313 313 312 312 311 310 309 305 302 299 299 298 298 298 297 297 297 296 295 294 293 293 292 292 292 292 295
329 326 325 318 311 312 313 312 312 311 311 310 308 305 301 299 297 297 298 297 297 296 295 295 294 293 292 292 292 291 291 292 294

GFSFLT1_850_thetae_024.txt.gz
Theta_e
316 316 316 316 316 315 315 316 317 318 320 321 321 323 327 330 329 329 329 327 330 327 324 327 328 328 326 327 328 327 323 317 314
318 317 316 317 319 320 320 322 323 322 323 323 324 325 329 328 329 329 329 329 327 323 322 329 331 331 333 333 334 333 333 329 324
319 318 317 317 320 321 324 325 324 325 324 323 323 322 324 326 327 328 328 326 324 316 324 325 328 328 329 329 329 329 329 333 333
323 321 319 317 320 324 324 323 323 324 322 321 321 321 322 322 322 322 323 321 319 313 313 315 320 325 322 324 324 325 327 329 329
326 323 320 317 319 321 322 322 323 322 321 320 317 317 317 316 315 317 317 315 314 313 313 321 324 325 324 319 317 317 317 318 324
329 325 321 318 318 321 322 322 323 322 323 322 317 312 312 312 311 311 311 311 317 322 323 323 324 323 322 317 315 315 315 316 316
330 325 320 318 318 321 322 323 323 323 323 320 312 311 311 309 309 309 308 318 321 322 322 322 321 321 316 314 311 310 310 311 312
326 324 322 319 317 320 322 322 322 323 318 311 310 309 308 307 306 306 306 319 321 320 320 314 314 312 310 310 310 311 311 312 313
322 323 321 318 318 321 322 322 323 322 312 310 308 306 305 304 305 305 306 309 313 311 308 309 309 309 308 307 307 307 307 307 307
322 322 323 323 324 324 322 322 323 318 310 308 305 304 303 303 304 304 305 305 306 307 307 306 306 305 304 303 302 301 300 300 299
322 321 326 326 325 325 322 323 323 311 309 305 304 303 303 303 303 303 304 304 304 304 304 304 303 301 300 300 300 300 300 300 300
320 320 326 328 328 325 323 323 317 310 307 306 304 303 303 303 303 303 303 303 303 302 302 301 302 299 298 298 299 299 299 299 299
324 321 325 328 329 323 324 323 311 309 309 307 305 303 302 302 302 303 302 302 302 301 301 299 299 298 298 298 298 299 299 298 298
329 326 327 329 328 325 324 317 310 310 311 309 306 304 302 302 302 302 302 301 301 300 299 299 298 298 298 298 298 298 297 297 297
330 329 329 329 327 325 324 311 311 312 311 309 306 303 303 302 302 302 301 302 302 300 299 298 298 298 298 298 297 297 296 296 296
329 329 329 329 326 325 321 311 312 312 312 310 305 304 303 302 302 302 302 302 301 299 298 298 298 298 297 297 296 296 295 294 297
331 329 330 328 325 325 318 311 313 313 312 311 307 304 303 302 302 301 302 301 300 299 298 298 297 297 296 296 295 294 294 293 294
332 330 330 328 325 324 316 312 313 313 312 312 310 306 303 303 301 300 299 299 298 298 298 297 296 295 295 295 294 293 293 292 295
331 330 330 328 325 323 313 312 313 313 312 312 311 310 308 303 300 299 299 298 298 298 297 296 295 295 294 293 293 292 292 293 296
330 330 331 327 325 318 312 312 313 312 312 311 311 310 308 305 301 300 298 298 297 297 296 295 295 294 293 292 291 291 291 292 294

GFSFLT1_850_thetae_027.txt.gz
Theta_e
313 314 314 314 313 313 313 314 315 317 318 318 322 324 326 327 326 326 327 327 329 327 323 327 331 331 328 329 329 330 326 320 314
315 315 316 316 317 317 319 320 321 322 322 323 324 324 326 326 328 328 327 327 328 322 321 328 330 331 332 333 333 331 333 332 326
316 316 316 319 320 321 324 324 324 325 324 323 323 323 324 325 327 327 328 326 322 318 316 317 327 327 328 329 329 329 329 331 334
317 317 317 319 320 324 323 324 323 323 322 321 320 320 322 322 321 321 322 321 318 316 312 314 322 323 324 325 325 326 326 328 329
319 318 317 317 321 329 326 323 323 321 320 319 317 317 317 316 315 315 316 315 313 312 314 321 325 325 324 319 317 317 317 318 321
324 322 319 317 319 322 322 323 323 322 321 321 319 313 313 312 311 311 311 311 320 323 324 324 324 324 322 317 315 315 314 314 316
327 326 322 319 317 321 322 322 322 323 323 321 315 311 310 309 308 308 309 319 323 322 322 321 321 320 314 311 309 309 309 310 311
330 327 322 320 318 320 321 322 322 322 321 314 311 309 308 307 306 306 316 320 321 320 319 317 316 312 310 309 309 309 309 309 310
327 325 324 322 318 320 321 321 321 322 320 311 310 307 305 304 304 305 308 314 315 310 308 308 308 308 307 306 305 304 304 303 303
324 323 324 321 318 321 322 322 321 322 316 310 308 304 303 303 304 304 304 305 308 307 306 306 305 304 303 301 300 300 300 300 300
323 323 323 322 323 324 323 321 322 322 311 308 305 304 303 303 303 303 304 304 304 304 304 304 303 301 300 300 299 299 299 299 299
324 325 323 324 326 325 324 322 323 319 309 307 305 304 303 303 303 303 303 303 303 302 301 301 301 299 298 298 299 299 299 299 299
328 326 320 324 327 327 325 323 323 313 308 307 306 305 303 303 302 303 303 302 302 301 301 300 299 298 298 298 298 298 298 299 299
331 329 322 324 327 328 325 324 323 310 309 309 306 305 303 302 302 302 302 302 302 300 300 299 299 298 298 298 298 298 298 298 298
332 330 325 325 328 328 326 325 320 310 310 309 306 305 303 303 302 302 302 301 302 302 299 299 298 298 298 298 297 297 296 296 297
331 330 328 328 328 328 326 324 315 310 311 309 306 304 303 303 302 302 302 302 302 301 299 299 298 298 298 297 297 297 296 295 296
331 331 328 327 327 329 325 324 313 311 312 310 307 304 304 303 302 302 302 302 302 300 299 298 298 297 297 296 296 296 295 294 295
331 331 331 329 328 329 325 324 312 312 312 312 309 306 305 304 303 302 301 301 300 299 298 297 297 296 296 296 295 294 293 293 295
332 331 330 330 330 330 326 323 313 312 313 312 311 311 309 306 303 301 300 299 299 298 297 297 296 295 295 295 294 293 292 292 296
330 331 330 331 329 329 326 323 311 312 313 312 312 311 310 308 306 302 301 299 298 298 297 296 295 295 294 293 292 291 291 291 291

GFSFLT1_850_thetae_030.txt.gz
Theta_e
313 312 312 312 311 313 315 313 313 316 317 317 321 323 325 325 326 324 325 329 329 325 322 330 333 332 332 333 333 333 331 324 316
314 314 314 314 315 315 316 318 320 321 322 322 323 323 325 325 326 327 325 326 326 319 325 327 329 329 331 332 332 331 332 334 332
315 316 317 318 319 320 322 322 323 323 323 323 322 323 324 325 326 326 326 324 321 318 314 314 325 328 328 328 328 329 330 331 333
316 316 318 319 320 323 323 329 323 322 321 321 320 321 322 322 321 320 320 319 317 314 313 315 323 324 323 323 324 322 322 324 328
317 317 317 320 323 327 329 323 322 321 320 319 318 317 317 315 314 314 314 313 312 317 323 326 326 325 324 321 320 318 317 316 317
321 319 318 318 324 325 322 322 321 321 321 321 320 314 312 311 311 310 310 315 323 325 324 324 324 323 321 320 315 313 312 312 313
324 323 320 318 321 322 322 322 321 322 322 322 316 311 310 309 308 307 311 322 323 322 321 321 320 320 311 309 308 308 309 309 310
328 326 324 320 317 320 322 322 322 322 322 318 312 310 308 306 306 307 321 321 321 319 319 318 314 309 308 308 307 307 307 307 308
329 328 325 321 318 318 321 322 321 321 321 315 310 308 305 304 304 305 311 316 316 311 306 307 307 306 306 305 303 302 302 302 301
327 328 326 325 322 319 320 321 321 321 321 313 309 306 304 303 304 304 305 307 309 308 306 305 305 304 302 301 301 300 300 300 300
324 324 324 324 321 319 322 322 321 321 322 312 308 305 304 303 303 303 304 304 304 304 304 303 302 301 301 300 300 300 300 300 300
323 323 324 322 322 323 324 323 321 322 321 310 307 305 304 303 303 303 303 303 303 302 302 301 301 299 299 299 299 299 300 300 300
321 321 325 324 323 325 325 325 322 322 318 308 307 306 304 303 303 303 303 302 302 301 301 300 300 299 298 298 299 299 299 299 299
319 323 327 325 322 325 326 326 323 323 315 308 308 306 304 303 302 303 302 302 301 301 300 300 299 299 299 299 299 298 298 298 298
327 330 330 327 322 325 327 327 324 323 312 308 308 306 305 303 302 302 302 302 301 302 302 300 299 299 299 299 298 298 297 297 297
332 332 331 328 324 325 327 326 324 323 311 309 307 306 304 303 303 302 302 302 302 302 302 300 299 299 299 298 298 297 296 296 296
332 330 330 328 327 326 326 326 325 323 311 310 308 305 305 304 303 303 303 302 302 302 301 300 299 298 298 297 297 296 296 296 295
333 332 330 329 327 327 327 327 326 323 313 311 309 307 307 306 304 303 303 303 302 302 300 299 299 298 298 296 296 296 295 294 293
332 332 330 329 329 328 328 328 327 324 315 311 311 310 309 306 306 305 304 303 302 300 299 299 298 297 296 296 295 294 293 292 292
327 330 330 330 330 329 330 329 328 324 314 312 312 312 311 310 309 307 307 304 302 300 299 298 297 296 295 295 294 293 292 291 291

GFSFLT1_850_thetae_033.txt.gz
Theta_e
312 311 311 315 323 325 324 319 313 316 315 319 321 323 324 324 324 324 326 329 329 319 327 332 332 332 333 334 334 333 332 329 320
313 313 313 312 312 313 314 315 319 320 320 321 322 323 324 324 325 324 324 325 323 317 323 322 328 330 332 332 333 332 334 333 333
315 315 315 316 317 318 320 322 322 322 322 322 321 322 322 323 324 324 323 321 318 316 314 315 327 327 328 328 329 328 330 330 334
316 317 318 319 321 323 324 327 323 322 320 320 320 320 320 319 318 317 317 316 314 312 314 324 325 324 322 321 322 322 321 323 329
316 317 319 321 324 327 330 323 322 320 319 319 318 317 316 314 313 313 312 311 318 325 326 326 326 325 324 322 316 316 315 315 316
318 318 318 321 329 330 326 322 321 321 321 321 319 314 312 311 310 310 309 321 326 326 326 324 323 322 322 315 312 310 310 310 311
320 320 318 318 327 323 322 322 321 321 322 321 316 311 310 309 308 307 319 324 322 321 321 320 319 315 312 307 307 307 308 308 308
325 323 322 319 317 320 321 321 321 321 321 320 312 310 309 306 305 312 322 322 321 318 314 314 313 307 307 306 306 306 305 305 305
328 327 325 322 319 317 319 321 321 320 321 321 313 310 306 304 304 306 319 319 316 312 307 306 306 306 305 304 302 301 301 301 301
328 328 327 325 321 319 318 319 320 320 321 321 312 308 305 304 304 305 306 309 310 307 305 305 304 304 302 302 301 300 300 300 301
325 328 328 327 324 322 319 319 321 320 321 321 311 307 305 304 303 304 304 305 305 305 304 303 302 302 302 300 300 300 300 301 301
324 325 325 324 324 323 319 321 322 321 321 321 311 307 305 304 303 303 304 304 303 303 302 302 301 300 299 299 300 300 300 300 300
321 323 323 323 323 323 322 324 324 321 322 321 310 307 306 304 303 303 303 303 302 302 301 301 300 300 299 299 299 299 299 299 299
319 320 322 321 324 324 324 325 325 323 323 320 309 307 306 304 303 303 303 302 302 302 301 300 300 300 299 299 299 299 299 298 298
330 321 320 321 325 326 324 326 326 324 323 319 308 308 306 304 303 303 303 302 302 302 302 302 301 300 300 299 299 298 298 297 297
333 327 320 323 328 327 322 326 326 325 323 316 308 307 306 304 303 303 303 302 302 302 302 302 301 300 299 299 299 298 297 297 297
333 331 326 328 330 327 323 325 325 325 323 315 308 306 306 305 303 303 303 303 303 302 302 302 301 300 299 299 298 297 297 296 296
329 330 330 330 330 327 326 326 325 325 325 320 310 308 308 307 305 304 303 303 303 303 303 302 301 300 299 299 298 297 296 296 295
329 329 331 329 329 328 327 326 326 326 326 321 313 310 310 308 307 306 304 303 304 303 302 301 300 300 299 298 297 296 295 294 293
331 329 328 330 329 328 328 327 327 327 327 324 320 311 310 310 309 310 308 306 305 303 302 301 300 299 298 297 296 295 294 293 293

GFSFLT1_850_thetae_036.txt.gz
Theta_e
311 311 312 315 324 329 325 321 313 315 317 320 322 324 323 325 328 329 329 333 325 323 329 331 331 333 334 334 333 332 332 332 321
312 311 313 317 322 321 315 314 317 318 320 321 322 323 323 329 329 330 329 329 321 316 320 327 330 331 333 333 334 334 333 334 334
314 313 313 313 314 315 318 320 321 322 322 322 322 322 322 328 328 324 326 319 317 315 314 321 327 328 326 328 329 329 330 332 334
315 316 316 317 319 321 327 325 323 322 320 320 320 320 320 325 322 320 322 315 313 313 323 325 325 324 322 320 320 321 322 324 330
316 318 319 320 323 325 330 324 322 320 319 319 318 316 315 314 313 313 316 311 325 328 327 326 325 324 323 322 320 315 315 314 315
317 318 319 321 324 330 325 322 321 320 321 321 319 314 312 311 311 315 313 328 328 328 326 325 324 322 320 315 308 308 308 308 309
329 318 318 321 329 329 323 321 321 321 321 321 317 311 310 311 313 320 322 322 324 324 323 321 319 316 308 307 307 307 307 307 307
328 328 320 319 324 325 322 321 321 321 321 321 315 311 309 315 318 323 324 323 322 317 310 308 311 307 306 306 305 304 303 303 303
331 331 330 329 325 326 321 321 321 321 320 321 318 312 308 314 320 320 322 321 318 314 308 306 306 305 305 303 302 301 301 301 301
332 333 332 330 329 325 318 320 320 320 320 320 320 312 307 308 317 320 315 320 317 310 306 305 305 304 303 302 301 301 301 301 301
330 331 332 330 328 323 320 319 319 320 320 320 320 311 307 307 311 318 308 307 307 305 304 304 303 302 302 301 301 301 301 301 301
329 330 329 330 328 326 323 320 319 321 320 320 320 311 307 305 305 307 313 305 305 304 303 303 302 301 300 300 300 301 301 301 300
322 330 329 328 327 324 324 321 321 322 321 321 321 311 307 306 305 304 304 305 305 303 303 302 301 300 300 300 300 300 300 300 300
326 326 329 328 326 324 324 322 323 323 323 321 321 312 307 306 305 304 304 303 303 303 302 302 301 300 300 300 299 299 299 299 298
332 327 323 327 325 323 324 324 324 324 324 322 320 313 307 306 304 304 303 303 303 302 302 301 302 301 300 300 300 299 299 298 298
334 333 331 325 321 322 322 325 324 325 325 322 319 313 307 306 304 304 303 303 303 302 302 302 302 302 301 300 300 300 299 298 298
331 332 333 331 324 321 322 327 325 324 325 323 312 308 307 306 305 304 303 303 303 303 303 302 302 302 301 301 300 299 299 298 297
331 329 331 331 330 324 325 329 326 323 325 325 319 310 311 307 306 305 304 303 303 303 303 303 303 302 301 300 300 300 298 297 297
331 329 331 330 329 329 328 329 327 324 325 324 324 321 312 309 307 306 305 304 304 303 304 304 303 303 301 300 300 299 298 297 296
327 328 328 329 329 329 328 329 327 326 326 325 325 322 316 310 309 308 308 306 305 304 303 304 303 303 302 301 301 299 297 296 296

GFSFLT1_850_thetae_039.txt.gz
Theta_e
311 311 318 331 335 334 331 320 314 314 319 321 323 323 324 330 331 333 330 331 325 325 330 330 332 334 334 334 334 333 334 332 322
311 312 313 316 324 323 318 314 317 318 320 321 322 323 325 331 331 331 331 324 318 317 324 330 331 332 333 333 333 333 333 334 334
312 312 315 318 317 315 316 319 320 321 321 321 321 321 323 331 330 329 327 317 315 314 319 322 326 327 328 329 331 330 330 331 332
314 314 314 314 316 319 323 322 321 320 319 319 319 319 320 327 324 322 323 314 312 316 324 326 325 322 320 321 319 318 322 324 330
316 316 317 318 320 324 328 322 321 320 319 319 318 316 315 320 314 316 315 314 327 329 328 327 325 323 319 319 313 314 314 314 315
316 318 319 319 322 330 328 322 321 320 320 320 319 314 316 316 316 319 324 329 330 328 327 325 324 321 311 314 307 307 307 308 309
325 322 320 321 326 329 326 321 321 321 321 321 318 314 313 317 317 322 323 326 326 325 324 322 318 313 307 307 307 306 306 306 306
330 328 318 321 326 328 325 321 321 320 319 320 315 313 312 317 319 322 324 323 321 317 311 307 307 307 306 305 304 302 302 302 302
332 332 330 326 328 331 326 323 321 320 320 319 317 315 314 318 323 325 324 323 319 315 313 306 306 305 305 303 302 301 301 301 301
333 332 332 331 330 330 328 324 320 320 320 319 319 316 313 316 321 322 321 321 320 318 309 305 305 304 303 303 301 301 301 301 302
334 334 333 332 331 330 328 324 320 317 318 319 319 318 313 315 317 321 313 316 315 309 306 304 304 303 303 301 301 301 301 302 302
333 333 332 333 333 331 328 325 320 317 317 318 319 319 314 312 313 318 316 309 306 305 305 304 303 302 302 302 301 301 301 301 301
331 332 332 333 334 332 329 325 320 318 319 320 319 320 316 312 312 312 314 311 306 305 304 303 302 302 301 301 301 301 301 301 302
331 331 332 330 332 331 329 325 321 320 319 319 318 320 317 311 311 310 308 309 309 306 304 303 302 301 301 301 301 301 301 301 302
333 331 331 332 331 331 328 324 322 321 320 320 319 320 318 311 310 308 308 306 305 305 304 303 302 301 301 301 301 301 301 301 300
335 334 332 331 331 329 328 324 322 322 320 318 319 317 319 313 309 308 307 306 305 303 303 303 303 302 302 302 301 301 301 301 300
336 334 333 332 331 330 329 325 322 322 324 322 320 315 314 318 311 307 307 306 305 304 303 303 303 303 304 303 302 302 302 302 300
336 334 334 333 331 331 330 327 323 322 324 324 322 317 315 314 312 308 307 306 305 304 303 303 303 303 303 304 303 302 302 301 300
333 333 334 333 332 331 330 329 326 322 324 325 323 321 316 312 310 309 307 306 305 304 303 303 303 304 303 303 303 303 302 301 299
323 331 335 332 331 330 329 328 328 325 323 328 324 323 321 318 313 311 310 307 306 304 303 303 303 303 303 302 302 302 301 300 299

GFSFLT1_850_thetae_042.txt.gz
Theta_e
311 324 332 336 335 334 327 315 314 318 319 321 321 324 329 329 331 331 329 325 318 327 330 333 333 334 334 334 334 334 333 330 324
311 311 318 327 327 325 318 316 317 319 320 320 321 323 330 329 330 329 327 319 316 325 327 330 332 332 332 332 332 332 332 334 334
312 313 314 318 321 317 315 319 319 320 320 320 320 321 330 330 328 322 321 314 313 314 317 319 321 323 327 330 330 330 329 330 331
313 313 315 315 315 316 319 320 320 319 319 318 318 320 326 327 321 321 320 313 312 325 325 325 324 321 321 321 320 318 319 324 328
315 315 315 316 318 319 321 320 320 319 319 318 317 315 317 314 313 314 314 315 329 329 328 326 322 320 316 312 311 310 314 314 315
316 317 318 318 319 321 323 320 320 319 320 320 317 314 314 314 314 314 324 328 330 328 325 324 320 316 308 307 306 306 307 307 308
316 317 319 320 321 324 324 320 320 320 320 321 318 314 313 315 315 316 323 327 327 325 323 319 311 309 306 306 306 305 305 305 306
327 322 320 319 320 322 324 320 320 320 319 320 319 316 312 317 316 319 318 323 320 318 312 307 306 306 306 305 303 302 302 302 302
332 329 324 317 318 321 321 321 320 319 320 320 319 319 314 318 321 324 322 322 320 313 311 307 305 305 305 304 303 302 302 302 303
332 330 331 328 326 328 330 326 322 319 320 319 319 319 317 315 318 321 319 319 317 316 314 307 305 305 304 303 302 302 302 303 303
333 330 331 332 330 330 330 328 323 320 318 318 318 319 318 314 316 318 317 314 313 313 311 306 304 304 303 303 302 302 302 302 302
334 334 332 332 330 331 331 329 325 321 318 317 318 319 319 315 315 315 315 312 310 308 307 305 304 303 303 302 302 302 302 302 303
332 333 332 333 333 329 331 330 326 323 319 317 317 319 319 319 314 313 313 311 310 307 305 305 304 303 303 302 302 302 302 303 304
333 331 332 331 332 329 331 331 329 325 320 318 318 318 319 319 316 312 311 311 310 308 306 305 304 303 302 302 302 302 303 304 304
335 333 331 331 331 332 330 330 330 327 321 318 317 317 318 319 317 313 311 310 309 308 307 305 304 303 302 302 302 302 302 303 304
335 333 333 331 331 332 330 330 330 326 321 318 316 313 316 317 317 315 312 310 308 307 306 305 304 303 302 302 302 302 302 302 303
336 333 331 331 332 332 332 330 329 327 322 319 316 313 315 319 319 316 313 311 309 307 306 305 304 303 303 303 303 303 302 302 302
330 335 334 330 331 331 331 331 330 329 324 321 319 317 318 319 319 318 316 311 309 308 306 305 304 304 303 304 304 304 303 302 302
325 331 334 336 332 330 330 330 330 329 327 321 320 320 321 318 316 316 313 310 308 308 307 306 304 303 303 304 304 304 304 303 302
326 328 330 333 333 333 329 329 329 328 328 327 323 320 321 317 318 317 316 310 309 308 307 306 304 302 304 303 304 305 304 303 302

GFSFLT1_850_thetae_045.txt.gz
Theta_e
331 333 335 335 333 330 317 314 317 319 319 320 323 327 329 330 330 326 323 318 325 330 332 332 334 334 334 334 334 334 332 332 334
312 326 328 331 330 321 315 316 318 319 319 320 325 327 328 329 328 327 322 316 325 327 328 330 328 332 332 331 331 332 333 334 334
312 312 317 318 321 315 317 318 319 319 319 319 322 328 329 329 328 320 319 313 313 314 316 317 317 318 324 330 330 330 329 328 330
313 314 315 317 315 316 318 319 319 318 318 318 319 323 323 324 317 318 316 313 317 327 326 323 320 317 318 319 319 318 320 324 326
314 314 315 315 316 318 319 319 318 318 318 317 316 316 316 314 313 314 314 319 332 328 325 322 317 315 311 308 310 309 315 315 315
315 315 316 317 318 320 320 319 319 319 319 319 316 315 314 313 313 312 322 328 329 328 320 320 313 309 306 306 306 306 307 308 309
316 316 317 318 318 320 321 319 319 319 320 320 318 315 314 314 313 313 322 328 326 322 321 316 307 306 305 306 305 305 305 306 306
317 316 318 318 318 319 321 319 319 319 319 320 319 317 315 314 315 314 316 318 318 315 311 307 306 305 305 305 303 303 303 303 303
328 327 324 321 318 319 322 321 320 319 319 319 319 319 317 315 316 318 320 319 318 314 310 309 305 305 305 304 303 303 303 303 303
331 331 329 325 322 318 320 322 321 320 319 319 319 318 318 317 316 317 318 317 315 314 313 311 305 305 305 304 303 303 303 303 303
331 331 330 329 329 326 326 326 327 323 319 319 318 318 318 318 316 317 317 316 314 313 312 310 305 305 304 304 303 302 302 303 303
331 332 332 331 330 329 329 329 329 328 323 319 317 317 318 318 317 316 316 315 314 312 312 309 305 305 304 304 303 302 303 303 304
331 332 333 332 331 333 331 329 330 330 326 322 318 316 316 316 317 316 315 314 314 312 310 308 305 304 304 304 303 303 303 303 305
334 332 330 330 331 332 333 331 329 329 328 325 321 317 316 317 316 317 317 315 313 312 310 307 306 304 304 303 303 303 303 304 305
337 335 334 331 330 330 331 332 329 329 329 328 325 319 316 316 317 316 317 317 314 313 310 308 307 305 303 303 302 302 302 303 305
336 335 335 334 333 332 331 331 331 329 329 329 325 318 316 315 316 316 315 316 317 315 311 309 307 305 304 303 302 302 302 302 303
330 332 336 335 334 333 332 331 331 330 329 329 325 316 316 317 317 317 317 316 315 315 313 310 308 306 304 303 302 302 302 302 302
327 329 329 334 334 334 332 331 329 330 330 329 326 315 316 319 319 318 318 317 315 314 314 310 308 307 305 303 302 302 302 302 302
326 326 328 328 328 331 333 332 331 329 328 329 327 325 321 320 320 321 320 318 315 313 311 310 308 307 305 304 303 302 302 302 302
326 327 325 327 327 328 330 330 332 329 329 328 327 325 322 318 318 319 320 319 316 313 311 310 308 307 306 305 303 302 302 300 302

GFSFLT1_850_thetae_048.txt.gz
Theta_e
335 338 336 331 328 318 314 317 318 318 317 318 324 326 327 328 326 324 317 321 330 332 331 334 334 334 333 333 334 334 334 335 334
324 328 330 328 324 316 315 317 318 319 319 321 323 324 326 325 324 321 317 320 326 328 330 329 328 331 331 331 331 333 334 334 333
315 318 319 321 319 315 317 317 318 318 318 319 321 323 324 323 323 317 317 312 314 316 316 317 317 317 324 328 329 330 329 328 329
312 313 315 317 316 316 318 318 318 318 318 318 319 322 320 319 316 315 314 312 322 326 323 318 316 315 315 316 317 318 319 322 324
314 315 316 316 315 318 318 318 318 318 317 317 317 317 316 315 313 313 312 321 329 325 320 318 314 311 309 306 310 309 313 316 316
314 315 315 315 317 319 319 319 318 319 318 317 316 315 315 314 313 312 318 329 327 321 315 315 311 307 305 305 306 306 308 310 311
315 316 316 317 318 321 321 319 319 319 319 319 317 316 315 315 315 313 318 330 329 319 317 313 307 305 305 305 305 305 306 306 306
315 316 317 317 318 319 322 321 319 319 319 320 319 317 316 315 315 314 316 319 320 319 314 309 307 305 305 305 303 303 303 303 303
318 318 318 318 318 318 320 321 320 319 319 319 319 318 317 315 315 316 317 320 318 318 312 309 307 305 305 304 303 303 303 303 303
323 325 327 327 323 320 318 320 321 321 319 319 318 318 318 317 316 316 318 319 319 318 315 311 310 305 305 304 303 303 303 303 303
327 327 328 330 329 327 325 322 323 325 323 320 319 319 318 318 318 317 317 318 318 317 316 314 311 306 305 304 303 303 303 303 303
330 329 329 330 331 330 328 327 326 326 327 327 322 318 317 317 318 317 317 317 317 316 315 313 311 307 305 304 303 302 303 303 304
332 332 330 331 332 332 331 330 331 329 328 329 328 323 318 316 317 317 317 316 316 316 315 313 311 308 305 304 303 302 302 303 304
335 334 333 332 332 332 331 331 332 332 330 329 328 327 324 319 316 316 317 317 316 316 315 313 311 309 306 305 304 303 302 303 304
336 336 335 334 333 332 331 331 332 332 331 330 328 327 327 324 319 317 316 317 317 316 316 314 312 309 307 305 304 303 302 302 303
335 335 335 335 334 333 333 332 331 331 331 330 329 326 325 326 324 318 317 316 317 316 315 315 313 310 308 305 304 303 302 302 302
332 331 331 332 334 333 333 332 332 331 331 331 329 327 326 327 327 322 318 318 316 316 316 315 313 311 309 307 304 303 302 301 301
330 330 330 329 330 331 330 332 332 331 330 330 329 325 324 325 325 324 321 319 317 316 315 315 313 311 310 308 306 304 302 301 301
321 325 328 327 327 328 329 329 329 331 330 329 329 328 327 323 322 323 322 319 315 314 314 314 313 312 311 308 307 305 302 300 300
319 325 326 326 325 322 325 327 328 328 330 331 328 326 326 326 323 321 320 321 319 318 316 315 313 312 310 308 306 305 303 301 300

GFSFLT1_850_thetae_051.txt.gz
Theta_e
336 336 335 324 318 313 316 317 316 314 315 316 319 320 322 319 317 316 316 328 333 332 333 333 333 333 333 334 334 335 335 334 332
332 332 330 322 317 315 316 317 318 317 318 320 322 322 323 319 318 317 315 322 328 328 328 330 327 331 331 332 334 334 334 333 333
323 323 323 321 317 316 316 317 318 318 319 321 321 322 323 321 319 316 315 313 315 318 315 317 316 315 319 324 327 330 329 329 330
319 319 319 319 316 316 317 318 318 318 318 320 321 322 321 319 316 315 313 312 320 324 317 316 314 313 312 314 316 318 322 324 325
312 315 316 318 316 317 318 318 318 318 318 318 321 320 319 317 314 313 313 319 330 325 317 315 312 309 308 306 307 310 313 316 317
314 315 316 317 315 318 319 319 318 318 318 318 319 319 317 315 314 313 315 326 330 323 314 313 311 306 305 305 305 306 307 311 313
315 315 315 315 317 318 319 319 319 318 319 318 317 317 315 315 314 314 315 330 331 324 318 315 309 306 305 305 305 305 305 306 306
315 315 316 317 317 318 320 320 319 319 319 319 319 318 316 316 316 316 315 329 327 323 319 313 308 306 305 305 304 304 304 304 304
315 315 316 317 317 318 318 320 321 319 319 319 319 319 318 317 317 316 316 318 319 320 319 315 311 308 305 305 304 304 303 303 303
323 319 322 324 325 323 321 318 319 321 321 320 319 318 318 318 318 317 316 317 319 320 319 318 314 311 306 305 305 304 303 303 303
327 326 325 326 327 327 327 326 321 321 322 323 321 319 318 318 317 317 317 317 318 319 318 318 317 314 308 305 305 304 303 303 303
331 330 329 328 329 330 331 330 328 327 326 326 327 326 324 320 317 317 317 316 317 317 318 318 316 315 312 306 305 304 302 302 303
334 332 331 331 331 331 332 332 331 329 330 330 328 327 328 327 323 318 316 316 316 316 317 317 316 315 313 309 306 304 302 302 302
334 333 332 333 333 332 332 332 332 331 330 331 331 330 329 328 327 326 322 317 316 316 316 316 316 315 314 313 312 306 303 302 302
335 335 335 335 335 335 333 332 332 332 331 331 331 331 330 328 327 326 326 324 319 316 316 316 316 315 313 313 315 315 309 302 301
337 337 336 336 335 334 334 334 333 333 332 332 331 331 330 328 328 327 326 327 326 320 316 315 315 315 314 312 310 314 313 310 302
336 334 332 331 332 332 332 332 333 332 332 331 330 329 328 327 327 327 327 325 326 323 318 316 315 315 314 313 311 309 311 312 309
334 332 332 332 331 332 329 330 331 332 331 331 329 328 326 326 325 325 324 323 323 322 318 315 313 313 314 314 312 309 308 311 312
321 321 322 323 325 326 327 326 326 328 329 330 330 329 329 326 325 324 324 323 323 322 320 318 315 313 313 314 313 311 310 307 309
317 317 317 318 323 324 325 325 322 326 327 327 328 328 327 327 326 322 324 324 324 322 321 320 319 315 312 312 312 311 308 308 306

GFSFLT1_850_thetae_054.txt.gz
Theta_e
337 333 328 318 314 316 316 315 314 315 316 317 320 322 320 318 316 315 325 331 331 331 333 333 332 332 333 334 335 335 333 334 322
332 331 325 318 315 316 317 317 316 317 319 320 321 322 320 319 317 316 316 324 331 327 326 328 325 328 331 332 334 333 333 333 332
327 324 322 319 315 316 317 318 318 318 320 321 321 321 321 319 317 316 315 313 313 314 314 316 315 315 315 321 326 328 329 331 330
324 321 321 319 316 316 317 318 318 318 319 320 321 322 321 319 317 314 313 312 323 318 313 313 312 309 309 309 312 315 318 322 327
314 318 319 318 316 317 318 318 318 318 318 319 320 321 319 317 314 313 313 320 330 326 313 311 310 307 306 305 306 307 309 312 316
314 314 315 317 316 317 318 318 318 318 318 318 318 318 317 316 314 314 314 323 331 327 315 314 310 307 306 305 305 305 306 308 311
314 315 316 316 315 318 319 319 318 318 318 318 318 318 317 316 315 315 315 321 331 329 322 320 313 308 306 305 305 305 305 306 306
315 315 315 315 316 317 319 320 319 319 318 319 319 319 318 317 317 316 316 321 330 326 321 318 314 310 307 305 305 304 304 304 304
316 315 315 316 317 318 318 318 320 321 319 319 318 318 318 318 318 317 316 316 322 319 319 319 317 314 310 306 305 304 304 303 303
325 320 318 318 319 323 323 322 319 318 320 321 321 319 319 318 318 317 317 317 317 318 319 319 318 316 314 308 305 305 304 304 304
327 327 324 324 326 327 327 327 327 325 321 321 322 323 321 320 319 318 317 317 317 317 318 318 318 317 315 313 306 305 304 303 303
331 330 330 329 328 329 329 330 330 329 328 327 327 327 327 327 327 324 319 316 316 316 316 317 318 317 318 315 312 306 304 303 302
333 332 331 331 331 331 330 330 331 331 331 330 329 330 330 329 328 327 326 323 320 317 316 316 317 317 317 317 315 312 305 303 302
333 333 332 333 333 333 333 333 332 332 331 332 331 331 331 331 330 329 328 327 326 324 319 316 316 316 316 316 317 316 313 306 303
335 335 335 335 335 335 334 334 334 334 333 332 332 332 331 331 330 329 327 327 327 326 325 321 316 315 316 316 316 318 318 313 306
335 336 336 336 336 335 334 334 334 333 333 332 331 331 331 329 328 329 328 327 326 327 326 324 320 315 315 315 315 315 317 317 314
335 336 336 336 334 333 332 332 332 332 331 331 331 331 328 328 326 325 325 325 325 325 324 322 320 315 314 314 314 314 315 317 316
335 335 334 333 334 332 331 330 331 330 328 329 330 329 326 326 326 326 325 326 324 324 323 321 318 316 314 313 313 314 314 313 316
323 323 322 324 324 325 325 327 327 326 326 325 326 328 328 327 326 324 324 324 322 324 322 323 322 320 316 313 313 313 313 312 313
316 316 316 317 317 317 318 321 325 325 325 327 327 328 326 325 324 322 323 322 322 322 321 321 320 320 319 317 312 312 313 312 312

GFSFLT1_850_thetae_057.txt.gz
Theta_e
334 324 318 314 316 316 315 314 315 316 317 319 321 319 318 317 315 320 330 331 330 332 331 327 328 331 333 334 334 333 333 327 317
329 322 318 315 316 317 317 316 316 317 319 320 320 320 320 318 316 314 315 325 328 318 321 323 321 320 328 331 330 332 332 332 333
322 322 319 316 316 317 317 317 317 318 319 320 319 319 318 317 315 314 313 313 314 314 313 314 314 312 312 315 321 323 328 330 331
324 322 320 317 316 316 317 318 318 318 319 319 320 319 318 316 315 314 314 317 321 314 312 311 309 307 307 306 308 310 313 317 327
317 319 320 318 316 317 317 318 318 318 318 318 318 318 317 316 315 315 314 320 331 321 315 315 310 307 306 306 305 306 306 308 312
313 315 316 317 316 317 318 318 318 318 318 318 318 318 317 316 316 316 315 319 331 329 318 319 314 309 307 306 306 305 306 306 309
314 314 315 317 316 317 318 319 318 318 318 318 318 318 318 317 316 316 316 318 330 330 322 320 317 313 310 306 306 305 305 305 306
314 315 315 315 315 317 318 320 320 319 318 318 318 319 319 318 317 317 316 316 331 332 324 319 318 316 313 309 306 305 304 304 304
319 315 315 316 316 317 318 318 319 321 321 320 319 319 318 318 318 318 317 316 320 325 320 318 319 318 316 313 307 305 304 303 303
324 322 316 316 316 318 323 323 323 320 319 320 320 321 321 319 319 318 318 317 316 321 318 318 318 318 317 315 312 307 305 304 304
324 326 326 322 324 326 328 328 328 327 326 325 325 324 325 325 325 325 324 320 316 316 316 317 317 318 317 317 315 312 306 304 303
328 330 330 329 329 328 328 329 330 330 330 330 329 328 329 329 328 328 328 326 323 320 317 316 316 317 318 318 318 316 312 305 304
333 332 332 331 331 331 331 330 330 330 330 330 331 331 330 330 330 330 330 329 327 326 324 320 316 316 318 319 321 320 317 313 305
333 333 333 333 333 333 333 333 333 333 333 333 332 331 331 331 331 330 329 328 327 327 326 325 323 317 316 319 321 322 321 317 313
333 333 334 335 335 335 335 335 335 334 333 333 332 332 331 330 330 330 329 328 328 328 327 326 324 321 317 315 317 319 321 320 318
335 335 334 335 336 335 335 334 333 332 332 332 330 328 328 327 329 328 326 326 326 326 326 325 323 321 318 316 315 316 318 319 319
335 335 334 334 334 335 335 334 333 332 332 331 331 329 325 325 325 326 325 325 325 325 324 323 323 321 318 317 314 314 315 317 319
334 335 335 334 334 333 332 334 333 331 331 331 330 327 325 325 326 325 324 324 323 323 324 323 321 322 322 319 314 314 314 315 316
330 330 328 326 325 324 324 325 327 329 329 327 326 326 324 325 325 323 323 323 322 322 321 321 321 321 321 320 317 315 313 314 315
315 315 315 315 315 316 316 317 318 320 326 328 326 326 326 325 324 322 322 322 322 321 320 320 319 319 320 319 318 319 316 312 314

GFSFLT1_850_thetae_060.txt.gz
Theta_e
324 318 314 316 315 314 314 315 316 317 318 319 318 317 316 319 330 333 332 337 330 329 327 324 326 331 333 334 333 333 332 328 322
323 319 315 316 317 316 316 316 317 318 318 319 319 318 317 319 318 328 331 323 316 313 313 316 315 315 322 328 329 330 332 331 332
324 321 317 316 317 317 317 317 318 318 319 319 319 318 317 317 315 315 324 315 314 312 312 311 310 308 308 310 315 322 325 330 331
324 323 320 316 316 317 317 317 318 318 319 319 319 318 317 319 315 314 321 319 316 314 314 313 309 307 306 306 306 307 309 316 327
319 321 321 318 316 317 318 318 318 318 318 318 319 318 317 317 315 316 316 321 328 320 319 318 315 310 307 306 306 306 306 307 309
314 317 317 317 316 317 318 318 318 318 318 318 318 319 318 317 316 316 316 319 329 331 324 321 318 314 311 307 306 306 305 306 306
314 314 315 317 317 317 318 318 318 318 318 318 318 319 318 318 317 317 317 317 325 334 331 322 319 317 314 310 307 306 305 305 305
314 314 315 316 316 316 318 319 320 319 319 318 318 318 318 318 318 318 317 317 318 332 333 320 318 318 317 314 310 306 305 305 304
321 315 315 315 316 317 318 320 319 320 321 321 321 320 320 319 319 318 318 317 317 322 324 320 318 318 318 317 314 308 305 305 304
324 322 316 315 316 317 319 322 325 324 322 319 319 320 321 322 322 321 322 321 318 317 323 318 317 318 317 317 317 314 308 305 304
323 325 326 322 320 322 326 329 328 328 328 327 327 326 326 327 327 326 326 327 326 321 318 316 318 317 318 317 317 317 315 308 304
324 326 329 329 328 327 327 328 328 329 330 330 331 330 329 329 329 329 329 329 329 327 325 322 318 317 318 322 321 319 318 316 309
332 331 332 331 331 331 330 331 331 330 331 332 332 331 331 331 330 330 330 330 329 328 327 326 324 320 320 321 323 323 321 319 317
332 333 333 333 333 333 333 332 332 333 334 333 333 332 332 331 331 330 330 330 329 329 329 327 326 324 321 319 320 320 321 321 320
334 333 333 334 334 334 334 334 334 334 334 333 333 333 332 330 327 327 328 329 328 327 328 328 327 325 323 321 319 318 320 320 320
335 335 335 335 334 334 335 333 333 333 332 332 331 332 330 327 325 327 327 325 325 325 325 326 326 324 324 322 319 318 317 318 320
335 335 334 334 334 333 333 334 334 334 333 333 332 331 327 326 325 325 325 325 324 324 324 324 324 323 320 320 319 317 316 317 319
333 333 333 333 335 335 335 334 334 334 333 332 332 329 326 325 325 324 323 324 323 324 323 322 323 322 323 322 321 319 316 316 317
323 325 328 332 333 332 329 327 326 329 330 331 329 329 329 327 324 324 323 323 322 323 322 322 321 321 320 320 320 319 318 314 314
314 315 315 316 316 316 316 316 316 317 319 321 326 325 328 326 326 325 323 322 321 321 321 320 318 318 318 318 318 318 318 318 317

GFSFLT1_850_thetae_066.txt.gz
Theta_e
315 314 313 314 315 316 316 317 317 317 316 316 316 321 329 333 333 331 323 314 313 312 315 313 312 311 314 320 325 328 330 331 332
315 316 315 315 315 316 316 317 318 318 318 317 316 318 320 321 324 322 317 313 312 311 311 309 308 308 307 308 309 316 322 328 331
316 316 317 316 316 317 317 318 318 318 318 318 317 318 322 322 319 320 319 314 314 315 316 315 312 310 308 307 306 307 310 314 325
319 317 317 317 317 317 317 318 318 318 318 318 318 318 320 318 318 319 317 319 317 318 319 319 317 315 312 309 307 307 306 307 309
320 319 317 317 317 318 318 318 318 318 318 318 319 318 319 319 319 318 317 317 319 323 324 322 318 318 316 313 309 307 307 306 306
318 319 318 318 317 318 318 318 318 318 318 318 318 319 320 320 319 319 318 317 317 319 324 328 320 318 318 317 314 309 307 306 306
318 317 317 317 317 317 318 318 318 318 319 319 319 319 320 319 319 318 318 318 317 317 319 322 323 318 317 318 318 315 310 307 306
321 317 315 315 316 317 317 318 319 319 320 319 319 319 318 319 319 318 318 318 318 318 317 320 320 318 317 317 317 317 315 310 307
318 323 321 319 319 318 323 323 329 327 321 321 320 320 319 320 320 321 321 322 323 324 323 321 322 319 318 317 317 317 317 316 310
326 325 325 323 324 325 327 326 327 329 330 329 328 327 326 326 325 324 326 326 326 327 327 325 327 322 321 320 318 317 317 317 316
327 332 328 324 323 321 323 326 332 332 332 332 331 331 330 330 329 328 327 327 328 328 329 328 327 325 324 324 324 323 321 318 317
332 330 333 330 328 327 327 329 330 331 330 330 331 332 332 331 330 330 329 328 328 328 328 328 327 326 325 325 325 325 325 324 322
331 331 329 332 333 333 331 330 331 331 332 332 332 333 333 333 332 332 331 331 331 329 328 329 329 328 327 325 326 326 326 325 324
330 332 333 334 334 333 333 332 333 334 334 333 332 332 332 333 332 332 333 332 331 330 330 326 327 326 327 327 325 325 326 326 325
334 333 334 335 335 335 335 334 333 333 333 332 332 331 332 332 332 330 330 330 330 328 328 326 324 325 325 326 326 324 323 324 324
335 334 335 336 335 334 334 334 333 333 332 332 332 332 330 331 330 331 330 326 327 327 325 323 323 323 323 323 323 322 322 322 323
336 336 335 337 335 334 333 333 332 331 330 330 330 329 327 327 325 328 329 326 325 325 324 323 323 323 322 322 321 321 322 321 322
334 333 334 335 336 335 333 332 331 330 329 328 329 329 327 327 326 326 326 325 324 323 322 322 323 323 320 320 320 319 319 320 320
331 332 332 329 325 323 322 321 324 327 328 327 328 328 326 326 324 323 323 324 323 323 323 322 322 322 320 319 319 318 318 318 319
323 319 317 316 314 313 312 312 313 313 314 314 320 322 322 322 323 322 322 320 322 322 322 321 319 317 316 316 315 315 315 316 316

GFSFLT1_850_thetae_072.txt.gz
Theta_e
314 315 315 315 316 316 316 315 318 323 326 326 326 326 325 323 317 314 313 314 313 313 313 312 310 309 308 308 310 314 318 325 331
315 315 315 316 316 316 316 316 316 317 319 320 320 320 319 319 319 317 314 316 317 318 318 316 315 312 310 308 308 308 310 312 319
315 316 316 317 317 317 318 318 318 317 317 318 320 320 318 319 318 317 319 318 318 320 319 319 318 317 315 311 309 308 307 307 309
316 316 317 317 318 318 318 318 318 318 318 318 318 319 319 319 318 318 317 317 319 321 323 323 318 318 318 316 313 310 308 307 307
317 317 317 317 317 318 318 318 318 318 318 318 319 319 319 319 318 318 318 317 317 317 318 319 320 317 317 317 317 314 310 308 307
317 317 317 318 318 318 318 318 318 318 318 318 318 319 319 318 318 318 318 318 317 317 318 319 320 319 317 317 317 317 315 311 308
319 319 318 317 317 318 318 318 318 318 318 318 318 318 318 318 318 318 318 319 320 321 322 321 321 321 319 318 317 317 317 316 311
319 318 317 317 317 317 317 318 318 319 319 318 318 318 319 319 320 320 321 322 323 324 325 325 325 325 325 322 321 319 317 317 315
320 317 317 316 316 317 317 320 321 323 322 324 325 325 325 324 324 324 324 325 326 326 327 327 327 327 327 324 324 322 319 317 317
319 317 319 319 318 318 319 320 320 321 324 327 328 329 328 327 327 327 327 327 327 327 327 327 327 328 328 326 325 324 324 323 319
325 323 322 322 320 320 320 321 322 325 328 329 329 329 328 329 330 331 330 330 330 330 330 329 328 327 327 326 326 326 325 325 324
328 325 324 325 324 324 324 323 324 327 329 329 329 329 330 331 331 330 331 331 331 332 330 329 329 328 323 325 326 327 327 326 326
330 328 326 328 329 329 329 328 328 328 329 330 331 331 330 331 330 330 330 331 331 330 328 327 327 324 324 323 325 326 327 326 327
333 330 328 329 329 331 332 332 332 331 331 331 330 330 330 329 329 329 330 330 332 331 328 327 326 326 326 322 323 324 325 326 326
335 331 329 331 332 333 332 332 332 331 331 330 329 329 329 329 327 327 328 328 330 330 328 328 326 327 325 322 322 322 323 323 323
335 333 332 332 333 333 333 333 332 331 330 329 328 328 327 327 326 326 326 325 326 327 326 326 325 325 321 322 322 320 320 320 320
335 335 334 334 333 334 333 333 332 331 329 328 328 327 327 325 324 325 325 324 326 325 326 326 323 321 321 321 320 319 318 318 318
335 335 335 335 334 334 333 332 330 330 329 328 329 328 327 327 326 326 326 325 325 326 324 323 322 320 321 321 320 319 319 318 318
335 335 336 336 335 334 333 333 331 327 326 323 327 323 326 326 324 323 323 324 324 323 322 322 321 322 322 321 320 316 316 315 314
332 330 332 330 328 328 330 325 318 315 313 312 312 312 313 317 325 322 322 321 319 320 320 321 322 322 320 319 317 316 314 312 312

GFSFLT1_850_thetae_075.txt.gz
Theta_e
329 320 315 315 315 315 318 320 322 322 321 320 321 321 319 318 314 314 315 317 317 317 316 315 312 311 309 309 310 311 315 329 331
315 315 315 315 316 316 317 318 319 319 319 319 319 319 319 319 318 317 317 317 319 319 319 318 317 315 312 310 309 308 308 309 317
315 315 316 316 316 317 317 317 317 318 319 319 320 319 319 319 318 317 318 319 319 321 322 320 317 318 317 315 312 310 308 307 308
316 316 317 317 318 318 318 318 318 318 318 319 319 319 319 318 318 318 317 317 317 318 318 318 319 317 317 317 316 314 310 308 308
316 317 317 318 318 318 318 318 318 318 318 318 319 319 319 318 318 318 317 317 317 317 318 319 320 319 317 317 317 317 315 311 309
317 317 317 318 318 318 318 318 318 318 318 318 318 319 319 318 318 318 318 318 319 320 321 322 322 321 320 319 318 317 317 315 312
317 317 317 318 318 318 318 318 318 318 318 318 318 318 318 318 318 319 320 321 322 323 324 325 324 324 324 322 322 320 317 317 315
319 319 318 317 317 317 318 318 318 318 319 319 318 318 319 319 321 322 322 324 325 325 325 326 326 325 326 325 323 323 319 318 317
320 319 317 317 317 317 317 317 319 321 321 322 324 325 325 325 325 325 325 325 325 326 326 326 327 327 327 326 325 324 323 322 319
322 319 318 318 316 318 319 322 323 323 323 327 327 328 328 327 328 327 328 328 329 329 330 329 328 326 326 325 326 326 325 324 324
323 320 321 322 320 320 321 322 323 324 327 329 329 329 329 328 329 329 329 330 331 331 331 329 328 327 326 323 324 325 325 326 325
328 327 324 324 323 322 323 323 323 325 327 329 329 329 329 330 330 329 329 329 329 331 330 329 328 326 323 323 323 325 325 325 326
333 331 327 326 326 326 326 327 326 327 328 328 330 331 330 329 329 329 328 328 329 329 330 329 326 325 325 323 322 322 325 325 326
335 333 329 327 328 329 330 331 331 331 330 331 330 329 329 329 328 328 328 327 328 330 331 329 326 325 326 324 322 322 323 323 324
336 335 332 329 329 330 331 332 330 331 331 330 329 328 328 328 328 327 326 326 326 326 327 328 326 326 325 324 321 322 321 321 322
335 335 333 330 331 331 331 332 331 331 330 329 329 327 327 326 324 324 323 324 326 325 325 325 327 326 324 321 321 321 319 318 318
335 334 335 333 332 333 332 332 331 331 330 329 328 328 325 323 323 322 320 325 325 325 324 324 326 324 322 319 321 320 319 319 318
334 333 333 334 334 333 332 332 331 331 329 327 327 327 325 325 323 325 323 325 324 325 325 325 323 322 322 319 321 321 320 319 316
332 333 333 333 333 333 332 332 332 331 328 328 328 327 326 327 321 321 323 322 322 323 323 322 321 321 321 321 321 320 317 316 315
333 332 331 330 327 326 324 324 327 327 323 314 313 312 312 312 316 317 313 319 317 321 320 320 319 320 320 319 320 318 317 315 313

GFSFLT1_850_thetae_078.txt.gz
Theta_e
336 327 314 315 316 319 320 320 321 321 321 321 320 319 318 316 316 316 318 319 319 319 318 318 316 313 311 310 309 309 311 326 329
326 316 314 315 316 319 321 321 321 320 321 320 319 319 319 318 318 318 318 319 320 321 321 318 317 317 316 313 311 309 308 308 309
315 315 315 315 316 318 319 320 320 320 320 320 319 318 319 318 318 317 317 317 318 318 319 319 317 317 317 317 315 313 310 309 308
315 316 316 316 317 317 317 318 318 318 319 320 319 319 318 318 318 317 317 317 317 317 318 319 319 318 317 317 317 316 315 312 310
316 317 317 317 317 318 318 318 318 318 318 319 319 319 319 318 317 317 318 318 319 320 321 322 322 321 320 319 318 317 316 315 313
316 317 317 318 318 318 318 318 318 318 318 318 319 319 319 318 318 318 319 320 322 323 324 324 323 323 323 322 322 320 318 317 316
316 317 317 317 317 318 318 318 318 318 318 318 318 319 318 318 319 319 320 322 323 324 324 325 325 324 324 324 323 322 320 318 317
317 317 317 317 318 318 318 318 318 318 319 319 318 318 319 320 322 323 323 323 324 325 325 326 326 326 326 326 324 323 322 322 320
319 318 318 318 317 317 317 317 318 319 322 321 322 324 325 325 326 326 326 326 326 328 328 329 328 326 326 326 325 325 324 323 323
321 321 319 317 317 317 316 318 321 323 323 325 327 328 328 327 327 327 328 329 330 330 330 330 327 327 326 325 322 323 325 325 325
325 322 319 320 319 319 319 321 321 322 323 327 328 328 328 327 328 328 329 329 329 329 330 329 327 327 326 322 322 323 324 324 324
328 326 322 323 323 321 322 322 322 323 325 327 328 328 328 329 329 329 328 327 328 328 328 328 329 326 325 324 322 321 323 325 326
333 331 329 326 325 324 323 324 324 325 327 328 329 330 330 329 328 328 328 327 327 326 326 327 328 327 325 325 322 321 321 321 323
334 334 332 330 327 327 328 328 329 330 330 330 330 329 329 329 328 326 328 327 327 326 327 328 329 326 325 324 323 321 320 321 321
334 335 335 332 330 329 329 330 332 330 330 330 329 328 328 327 327 326 325 325 325 325 326 325 326 326 326 325 323 320 321 321 320
333 334 335 334 332 330 330 331 331 330 330 329 328 328 328 324 323 322 320 319 319 323 325 323 325 326 327 325 320 318 321 320 319
334 334 334 335 333 331 332 332 331 330 330 329 328 327 323 321 321 322 321 321 322 325 324 324 323 325 325 322 320 319 321 320 319
332 333 333 332 333 333 332 331 331 330 329 329 329 327 324 325 323 321 320 322 321 322 322 321 324 324 322 321 320 319 321 320 319
333 332 331 331 331 331 330 329 329 329 329 329 330 330 329 328 322 315 317 318 320 322 322 322 322 321 320 319 320 321 320 319 316
331 330 329 330 330 328 327 325 325 325 323 320 319 316 312 312 313 313 312 313 315 316 316 320 320 319 319 318 318 318 319 318 317

GFSFLT1_850_thetae_081.txt.gz
Theta_e
332 318 313 316 319 320 321 321 321 322 321 320 319 317 316 316 317 318 319 319 320 319 317 317 317 315 313 311 310 309 310 312 321
327 314 314 317 320 320 321 321 321 321 320 319 319 318 318 318 318 318 318 319 319 320 319 317 317 317 316 315 313 312 310 309 309
320 314 315 317 319 320 320 320 320 320 320 319 318 319 318 318 317 317 317 317 317 318 318 319 318 317 317 317 316 316 314 311 309
315 315 315 317 319 321 322 321 320 320 320 320 319 318 318 318 317 317 317 318 318 319 320 321 321 320 319 319 318 317 316 315 312
315 316 316 316 318 319 319 318 318 319 319 319 319 319 318 318 318 318 318 320 321 322 323 323 323 323 322 321 321 319 317 316 315
316 316 316 316 317 317 318 318 318 318 318 318 319 319 319 318 318 318 319 321 323 324 324 324 324 324 324 323 322 321 319 318 317
316 317 317 318 318 318 318 318 318 318 318 318 318 319 318 318 319 320 321 323 324 324 324 325 325 325 325 325 323 322 322 321 319
317 317 318 318 318 318 318 318 318 318 318 318 318 318 318 320 322 323 323 323 324 325 326 327 328 327 326 326 325 324 323 322 322
317 317 317 317 317 317 317 318 318 318 318 320 319 321 324 325 325 325 324 325 327 328 329 329 328 326 326 324 323 322 322 324 324
318 317 318 318 317 317 317 317 317 319 322 322 325 326 327 326 326 326 327 328 329 330 330 329 328 326 327 325 321 322 322 324 324
321 321 321 319 317 316 317 317 321 322 323 323 326 327 328 328 327 328 328 328 328 328 327 327 327 327 326 325 323 323 321 321 323
325 325 323 319 321 320 320 320 322 322 323 326 328 328 328 328 329 328 328 327 327 326 326 326 326 326 326 325 325 323 321 320 320
323 327 326 323 324 323 322 322 323 323 324 327 328 329 329 328 328 328 327 327 326 327 326 325 325 326 327 324 324 324 321 319 320
329 333 332 331 327 325 325 324 324 326 328 330 329 329 328 328 326 328 327 326 326 325 325 325 326 326 326 325 323 324 321 319 320
332 333 335 333 331 328 328 329 329 331 330 330 329 329 327 328 327 325 325 324 322 319 321 324 325 324 325 325 325 324 320 319 320
334 334 334 334 333 331 329 330 331 331 329 329 327 328 328 324 323 320 318 319 317 317 322 324 323 323 324 325 324 321 319 319 320
334 334 333 333 334 333 331 331 331 329 329 329 328 327 325 322 321 322 321 315 318 318 324 324 323 323 323 324 323 321 320 320 320
333 333 333 332 332 332 331 331 330 330 328 328 328 325 325 325 324 321 317 315 320 316 317 321 318 321 323 323 320 319 319 320 320
332 332 332 332 331 331 330 330 329 328 327 327 327 324 325 325 324 314 312 313 313 315 316 317 321 321 321 320 319 318 317 320 319
329 328 329 331 330 330 330 328 327 325 324 325 322 319 319 313 312 313 312 312 313 313 313 313 316 319 319 319 319 318 319 319 317

GFSFLT1_850_thetae_084.txt.gz
Theta_e
331 314 314 323 320 319 320 321 320 319 319 317 316 316 316 318 324 321 320 321 320 318 317 317 317 316 314 312 311 310 311 313 321
321 313 316 320 320 320 322 322 322 321 320 320 318 318 318 321 321 326 329 319 319 318 318 317 317 317 317 316 315 313 311 310 309
317 314 318 321 322 322 323 322 322 321 319 319 319 318 318 318 317 319 327 318 318 319 320 319 319 318 318 318 317 316 315 314 312
316 315 319 322 322 322 323 322 321 320 320 319 318 318 318 319 317 318 326 319 320 321 322 322 322 321 321 320 319 318 317 316 314
315 315 317 321 321 322 322 320 320 319 319 319 319 319 318 318 318 318 320 321 322 323 323 323 323 323 323 322 322 320 318 318 316
315 316 316 320 321 321 320 319 318 319 319 319 319 318 318 318 318 319 320 322 323 323 324 324 324 324 325 324 322 322 321 320 319
328 316 316 317 317 317 318 318 318 318 318 318 318 319 318 318 319 320 321 322 323 324 325 326 326 326 326 326 324 323 322 322 321
317 317 317 317 318 318 318 318 318 318 318 318 319 319 318 320 321 322 322 323 324 325 327 329 328 326 325 325 324 322 322 322 322
321 325 321 320 318 319 318 319 318 318 318 319 319 318 321 324 324 325 324 325 327 328 329 329 328 326 326 326 323 321 322 322 323
317 317 317 317 317 318 318 318 318 318 318 321 322 326 328 328 326 326 326 327 328 329 329 328 327 327 327 327 323 322 321 321 323
317 317 317 317 317 317 317 317 317 320 322 328 327 328 327 328 328 328 329 328 327 327 327 327 326 326 327 326 326 324 322 319 320
321 320 321 322 320 319 317 317 319 324 323 325 329 330 331 331 330 331 331 329 327 327 326 325 324 325 326 327 326 325 324 320 319
325 327 327 325 321 321 320 321 321 324 326 328 330 330 331 331 331 330 330 330 328 328 326 327 327 326 325 326 326 325 324 322 319
326 321 325 328 324 324 324 323 323 327 326 327 330 331 331 331 330 329 329 329 325 327 327 322 325 325 326 325 325 325 324 323 319
324 320 331 333 331 329 326 325 324 326 329 331 331 331 331 330 330 329 329 327 321 320 317 318 324 324 325 324 325 324 325 321 319
332 329 333 334 334 332 329 327 328 329 331 330 328 330 330 329 328 326 322 322 315 315 316 323 325 325 323 324 325 324 324 321 319
332 332 333 333 334 334 332 329 330 331 331 329 331 328 328 326 324 326 319 317 312 315 314 319 324 323 320 322 323 324 322 320 319
330 331 332 333 333 333 333 332 330 330 329 328 329 328 326 326 325 324 319 313 315 315 313 315 319 317 321 323 323 322 320 319 318
331 331 331 330 332 332 332 331 330 330 329 328 327 326 328 325 323 322 317 313 313 313 313 313 312 318 321 322 321 320 319 318 317
329 330 329 328 328 330 331 331 329 329 329 326 325 324 320 318 319 318 318 315 316 313 312 312 312 313 317 319 319 319 319 318 318

GFSFLT1_850_thetae_087.txt.gz
Theta_e
335 321 324 336 331 322 322 319 318 317 316 316 316 316 320 330 330 325 322 320 318 317 317 317 316 315 314 313 312 311 311 311 316
327 317 336 336 321 322 321 320 319 319 317 316 317 317 321 331 332 333 321 318 318 318 318 318 318 317 317 316 315 314 312 311 310
317 314 333 329 321 322 322 321 321 320 320 318 318 318 318 329 330 333 319 318 319 320 321 320 319 320 319 319 318 317 316 315 312
314 316 329 321 322 322 323 322 321 319 319 319 318 318 319 327 324 330 325 319 321 322 322 322 322 322 321 321 320 319 318 317 316
314 317 326 322 323 323 323 322 321 320 319 319 319 318 318 325 319 325 321 321 322 323 323 322 323 323 323 322 321 320 320 319 318
314 319 328 325 324 323 322 321 320 320 319 319 319 319 323 325 325 325 320 322 322 323 323 323 324 325 325 324 323 322 321 320 320
328 317 320 322 324 323 321 319 318 319 319 319 318 320 324 323 323 323 320 322 322 323 324 326 327 327 325 325 324 323 322 321 321
332 319 316 321 322 321 318 318 318 319 325 325 322 325 323 323 323 321 321 322 323 324 326 328 328 326 325 325 324 321 321 321 322
331 318 316 317 317 322 319 321 323 324 323 324 324 324 322 323 324 325 324 323 324 327 329 329 328 326 326 327 324 322 321 321 323
330 330 329 330 327 329 328 327 326 323 324 325 325 325 327 328 328 328 326 325 327 328 328 328 327 326 327 327 326 324 323 320 319
330 330 329 328 328 325 324 324 325 324 325 327 329 329 330 331 331 330 331 329 327 327 326 327 326 326 326 326 326 327 325 322 319
326 327 324 319 320 324 325 324 324 326 328 329 329 329 331 331 331 331 331 331 329 327 327 326 326 325 324 325 327 327 325 324 321
321 325 326 330 330 323 325 322 322 329 330 329 329 330 332 331 332 331 331 330 330 330 329 328 326 326 326 324 325 326 325 323 323
326 326 326 331 332 328 327 328 328 329 328 328 329 331 331 332 331 330 329 329 329 329 328 326 319 321 325 325 325 325 325 324 324
335 330 325 332 332 330 329 329 329 329 328 328 329 331 331 331 330 330 329 329 328 325 325 319 324 327 324 325 324 324 324 324 324
332 331 327 331 333 333 331 330 329 328 328 330 331 331 331 330 330 329 328 325 325 315 315 316 321 328 327 323 323 325 325 324 324
331 332 330 332 333 333 333 331 329 329 329 331 331 331 330 329 328 326 327 324 322 318 314 313 312 318 323 322 320 323 323 324 320
330 330 330 332 332 333 334 333 330 330 331 331 330 329 328 327 326 327 325 322 320 322 318 312 312 313 315 316 322 323 323 321 320
329 330 330 330 331 331 331 331 332 331 331 330 328 329 328 327 326 326 322 317 316 317 318 315 313 312 313 319 322 323 322 320 318
325 329 331 330 330 329 329 329 328 331 330 329 329 327 325 324 323 323 320 319 318 317 317 315 313 312 312 314 317 319 319 318 317

GFSFLT1_850_thetae_090.txt.gz
Theta_e
339 330 321 337 336 334 319 318 317 317 316 316 316 320 327 323 323 321 320 318 317 317 317 317 317 316 315 314 314 313 312 311 311
337 326 333 334 325 320 319 317 317 316 316 316 317 321 326 329 331 321 318 318 318 318 318 319 318 318 318 317 317 316 315 314 312
331 319 334 322 321 323 324 319 318 318 317 317 318 320 324 327 329 321 318 319 320 321 321 320 320 320 320 319 319 318 317 316 315
327 330 336 323 322 326 321 321 320 320 319 318 318 319 322 325 326 327 320 320 321 322 321 321 321 321 322 321 320 319 319 318 317
318 335 335 321 322 324 322 322 320 319 319 318 318 318 321 321 322 326 321 321 321 322 321 322 322 323 324 323 321 320 320 319 319
316 335 334 322 322 323 323 322 320 320 319 319 318 318 321 323 325 323 320 321 322 321 322 323 324 325 325 324 323 322 322 320 320
315 329 335 328 323 323 322 321 320 319 319 319 319 319 322 323 323 323 320 321 321 322 323 325 326 326 324 324 323 322 321 321 320
317 320 334 326 323 323 322 320 319 318 320 322 319 323 324 322 322 321 321 321 321 323 325 327 327 326 325 326 325 321 320 321 321
323 321 319 321 322 322 321 318 318 319 324 325 323 324 322 321 323 324 325 323 323 325 327 328 328 326 326 327 326 325 322 321 320
327 325 317 319 321 319 320 321 324 325 322 322 324 324 323 326 327 327 326 325 325 326 327 327 326 325 325 326 326 325 325 322 319
327 326 320 321 324 325 329 326 326 325 323 324 326 326 328 329 330 330 329 330 329 327 326 326 325 325 324 323 325 327 328 325 322
329 331 330 329 329 326 325 323 324 325 324 324 328 329 329 330 329 330 331 331 330 329 329 327 326 325 325 325 324 325 326 326 323
327 328 326 324 322 320 323 323 324 324 325 328 328 328 330 331 331 331 331 331 329 330 329 328 328 325 323 323 323 324 325 325 323
323 322 322 323 325 325 324 322 321 321 324 328 328 329 330 331 331 331 330 329 329 329 327 325 321 319 319 320 323 324 323 325 324
328 328 327 330 331 331 328 326 326 327 328 327 327 329 331 331 331 330 329 329 329 327 321 317 314 318 322 321 323 323 322 323 324
331 330 329 328 332 332 329 329 327 328 328 328 328 329 330 330 330 329 329 329 326 320 314 313 314 316 317 320 322 322 324 325 323
333 334 332 328 328 331 332 332 330 329 328 328 329 330 330 329 330 329 328 325 324 321 315 314 312 312 313 313 316 320 321 323 323
331 331 332 331 330 332 332 333 332 331 329 328 330 331 330 330 329 328 326 326 319 319 321 317 313 312 313 313 312 318 322 323 321
328 329 329 329 330 331 331 331 331 331 331 330 329 329 328 328 326 326 326 324 319 318 318 317 315 314 312 312 315 320 323 322 321
323 323 324 326 329 329 330 330 328 328 329 327 327 329 329 327 326 325 322 320 319 317 317 316 316 313 313 312 312 315 319 320 319

GFSFLT1_850_thetae_093.txt.gz
Theta_e
339 328 331 337 333 325 321 319 320 319 318 316 318 323 324 322 320 319 318 317 317 317 317 317 317 317 317 316 316 315 314 313 312
339 326 330 336 336 317 317 318 317 316 316 316 322 324 323 322 323 318 317 318 318 318 319 319 318 318 318 318 317 317 316 315 314
338 331 332 332 321 318 318 317 316 316 316 317 320 323 324 323 322 318 318 319 320 321 320 319 319 320 320 320 319 318 317 317 316
338 334 334 328 319 322 318 318 317 316 317 317 319 321 322 321 323 322 319 320 321 321 320 320 321 322 322 321 320 319 319 318 318
333 330 333 322 330 331 319 319 319 319 318 318 318 321 322 321 321 322 319 320 321 320 320 321 322 324 324 323 321 321 320 319 318
331 333 333 333 333 324 320 320 319 319 318 318 318 319 322 322 322 322 319 320 320 320 321 322 324 325 323 323 323 322 321 320 319
328 333 332 334 325 323 322 321 320 319 319 319 318 320 321 322 322 322 320 320 320 321 322 324 325 324 323 325 324 321 320 320 320
322 333 331 327 322 323 322 321 320 319 319 319 318 322 323 322 321 321 321 321 321 321 323 325 326 325 325 326 325 324 321 320 320
318 330 331 322 322 323 322 321 319 318 320 322 322 322 323 322 321 323 324 323 322 323 325 326 326 324 324 327 326 324 324 322 320
319 320 329 322 322 323 322 320 318 318 321 322 322 323 323 321 324 326 326 325 325 324 325 325 324 323 324 323 325 326 327 325 323
328 324 322 321 322 322 321 319 321 323 323 320 322 323 323 328 328 328 329 328 329 328 326 324 325 325 324 323 322 325 327 327 325
333 326 322 317 320 320 322 324 324 325 323 323 324 324 326 328 329 330 329 329 329 328 329 327 326 326 324 324 324 324 326 325 325
332 329 323 320 323 327 325 325 322 323 324 324 324 328 329 328 331 331 330 330 329 328 329 329 328 324 320 318 323 323 324 325 325
330 329 330 329 328 326 324 321 322 323 323 323 326 327 328 329 330 331 330 330 329 329 329 328 321 317 316 318 319 322 324 323 324
328 330 329 328 325 322 323 323 323 321 321 322 325 327 329 330 330 330 330 328 328 328 328 325 315 314 316 318 321 321 323 322 323
328 326 325 326 327 327 328 327 325 324 326 328 327 326 328 330 330 330 329 328 328 328 328 315 313 313 314 316 319 322 321 322 324
330 328 329 330 331 332 331 329 328 328 328 328 328 328 328 328 328 330 329 328 329 328 320 316 314 313 312 313 314 316 320 322 323
330 329 330 331 329 330 331 331 331 331 330 329 328 330 330 329 329 329 330 328 328 322 318 318 318 314 313 312 313 313 318 321 322
328 328 329 332 330 327 329 331 332 331 330 330 329 328 329 328 327 329 327 327 325 318 319 317 316 315 314 313 312 314 320 323 322
324 325 328 328 329 329 329 329 329 328 329 330 329 328 326 327 327 325 326 326 322 319 318 317 317 315 314 313 312 312 315 320 320

GFSFLT1_850_thetae_096.txt.gz
Theta_e
340 327 334 335 337 336 326 320 322 319 318 322 323 322 321 320 319 318 317 317 317 317 317 318 317 317 317 317 316 316 315 314 313
339 329 335 335 332 333 323 321 320 319 317 320 323 322 322 321 318 317 317 318 318 319 318 318 318 318 318 318 317 317 316 316 315
339 331 335 336 332 324 319 319 317 316 316 322 322 321 322 322 319 318 318 319 320 319 319 319 320 320 320 319 318 318 318 317 317
339 330 333 336 328 317 317 317 316 316 316 321 323 321 321 321 323 319 319 320 320 319 319 320 321 322 322 321 320 319 319 318 317
339 332 332 334 322 318 317 317 316 316 317 319 321 321 321 320 322 320 319 320 320 319 320 321 322 323 322 322 321 321 320 319 318
338 335 327 329 325 331 318 318 318 317 317 318 319 321 320 319 321 320 319 319 320 320 320 322 324 324 323 323 323 321 319 319 318
339 332 322 331 332 334 321 320 319 319 318 318 318 319 321 320 320 321 320 319 320 320 321 323 324 324 323 324 323 321 320 320 320
337 332 331 332 334 328 322 321 319 319 318 318 318 320 320 320 319 320 321 320 320 320 322 324 324 324 324 325 325 324 322 321 319
338 331 331 332 325 322 322 322 320 319 319 319 318 320 322 321 320 321 323 323 322 322 323 324 324 322 322 325 326 325 324 324 322
336 330 330 328 325 323 322 322 320 319 319 320 321 321 322 321 320 323 326 325 325 323 324 325 323 322 322 322 322 325 325 327 325
333 330 332 330 323 324 323 321 320 318 319 320 320 321 322 322 324 326 327 328 327 328 326 325 324 324 323 323 323 323 324 327 326
327 326 329 329 323 324 324 322 319 320 321 322 319 321 322 323 327 328 328 328 328 328 327 327 326 325 325 324 323 323 324 326 325
331 325 319 322 321 323 324 321 321 323 323 321 322 322 325 325 328 329 329 329 329 329 328 328 328 327 323 320 318 322 322 324 324
326 331 332 327 321 321 322 323 324 323 323 322 323 323 326 328 328 330 330 330 330 329 328 329 328 325 317 316 319 317 322 323 324
326 326 330 328 321 327 326 324 325 323 322 323 323 324 327 328 328 329 330 330 330 328 327 328 328 319 314 316 317 320 320 322 323
327 328 330 329 329 327 326 327 324 321 323 323 322 324 326 328 328 329 329 329 328 328 327 328 327 314 313 314 315 316 320 322 322
329 330 328 330 330 330 328 324 323 324 324 324 327 328 327 327 329 330 329 327 328 327 328 328 324 315 314 313 313 313 314 318 322
327 327 327 330 329 325 325 328 329 327 326 327 328 328 327 327 327 328 329 330 329 328 328 327 317 317 316 314 313 312 312 315 320
327 329 329 326 326 327 328 329 328 327 329 329 328 328 328 329 329 329 329 330 329 328 327 321 319 317 316 315 314 312 312 317 320
327 329 328 327 329 327 326 328 326 327 329 328 328 328 328 328 328 328 328 326 324 324 327 320 318 317 316 314 313 312 312 313 318

GFSFLT1_850_thetae_099.txt.gz
Theta_e
338 329 334 339 338 338 332 323 321 317 318 320 322 322 320 319 318 317 317 317 317 317 317 317 317 317 317 317 316 316 315 315 314
340 331 335 338 337 336 325 321 319 317 319 320 321 321 320 319 317 317 317 318 318 318 318 318 318 319 318 318 317 317 317 316 316
339 332 335 335 334 335 323 322 319 318 318 319 321 322 322 319 317 318 318 319 319 318 318 319 320 321 320 319 318 318 317 317 316
339 334 335 335 334 330 323 321 319 317 317 321 321 321 321 321 318 318 319 319 319 319 319 320 321 322 321 320 319 319 319 318 317
339 334 333 334 334 326 320 319 316 316 317 320 321 320 320 321 321 318 319 319 319 319 319 320 322 322 321 321 321 320 319 318 317
339 335 331 332 325 318 318 317 315 316 317 319 319 320 320 319 320 319 318 319 319 319 320 321 322 322 322 323 322 320 319 319 319
339 337 335 331 322 318 317 317 315 315 317 318 318 319 319 319 320 320 320 319 319 319 320 322 323 323 323 324 323 322 320 320 320
338 338 338 330 327 332 324 319 318 317 317 318 318 318 319 319 319 320 320 320 320 320 321 323 324 324 323 325 325 324 323 322 320
338 338 337 329 330 333 330 320 319 319 318 318 318 318 319 320 319 320 322 322 322 321 321 324 324 323 322 323 325 325 324 325 324
336 336 335 331 329 333 329 322 320 319 319 319 318 318 319 320 320 319 324 324 324 323 323 324 324 322 322 322 322 323 324 326 327
330 335 334 332 328 330 330 326 322 320 319 319 320 320 321 321 321 319 324 326 326 326 327 324 322 323 322 322 322 323 322 325 326
325 325 333 332 332 329 328 327 323 320 319 319 321 322 321 322 322 324 326 327 327 327 326 326 325 325 326 324 324 323 324 324 327
327 329 330 331 323 330 326 325 323 321 318 318 320 320 321 322 322 325 327 328 329 328 328 327 327 328 326 324 320 317 320 323 324
326 329 324 323 318 324 329 326 324 321 320 321 323 322 322 323 325 326 328 329 329 329 329 328 327 328 327 318 315 317 317 320 322
323 321 327 324 321 321 326 327 324 321 322 324 324 323 323 323 326 328 327 330 330 330 330 328 327 327 326 316 314 316 318 320 321
327 324 325 327 325 322 325 322 323 325 326 325 324 324 323 324 326 327 328 329 330 330 329 328 327 327 326 314 314 315 315 317 321
325 325 327 325 326 328 326 319 323 325 327 325 324 324 323 322 325 327 328 329 329 329 328 328 327 327 325 315 313 313 313 313 315
327 326 327 327 327 328 328 325 325 326 326 324 325 326 326 325 325 326 328 329 329 328 328 327 327 327 323 316 315 314 313 312 318
327 327 327 327 325 329 328 326 328 328 325 325 326 326 327 327 327 326 326 329 329 329 329 328 327 327 319 318 315 314 314 312 319
325 328 327 329 327 328 329 329 329 327 326 328 326 327 328 328 328 328 327 327 327 328 329 328 327 324 319 318 315 314 313 312 312

GFSFLT1_850_thetae_102.txt.gz
Theta_e
340 332 331 335 339 338 338 333 321 317 318 320 320 319 318 317 317 317 316 317 317 317 317 317 317 317 317 316 316 316 316 315 315
337 333 331 336 337 338 334 326 318 317 319 321 320 319 319 318 317 317 317 317 318 317 317 318 319 319 318 317 317 317 316 316 316
337 335 333 337 338 336 331 322 319 317 319 320 320 320 319 317 317 317 318 319 318 318 318 319 320 320 319 318 318 318 318 317 316
336 337 333 336 336 334 330 321 318 317 318 319 320 320 320 318 317 318 318 319 318 318 318 319 321 321 320 319 320 319 318 317 316
335 338 335 336 334 332 331 321 319 318 317 319 320 319 320 321 319 318 318 319 318 318 319 320 321 321 321 321 321 320 318 318 318
335 338 335 334 333 330 328 321 319 317 317 320 320 319 320 320 320 318 318 319 319 319 319 320 322 321 322 323 322 320 319 319 320
333 338 335 333 333 326 323 320 317 316 316 318 319 319 319 318 320 320 319 319 319 319 320 321 322 322 322 323 323 323 321 320 320
334 338 335 332 333 329 325 317 315 315 316 317 318 318 318 318 319 319 320 319 319 319 320 321 322 323 321 323 324 325 322 323 322
334 338 336 335 335 328 327 318 316 315 316 317 317 318 318 319 319 318 320 321 321 320 320 322 322 322 319 321 323 323 324 325 325
334 337 336 336 337 327 330 328 320 318 317 317 318 318 318 319 320 319 320 323 323 322 322 323 323 322 320 321 321 321 323 324 326
328 333 335 336 335 328 332 332 327 321 318 318 318 318 318 319 320 320 320 324 325 325 324 325 324 322 321 321 321 320 322 324 327
326 326 330 334 334 332 332 332 330 325 321 319 319 319 319 320 320 321 320 323 326 326 326 327 325 324 325 325 324 326 325 324 325
327 326 326 329 333 333 332 330 329 326 323 320 319 320 322 321 321 321 323 326 327 328 327 327 326 327 327 326 326 321 316 317 325
326 327 327 328 330 333 331 324 328 327 324 321 319 320 321 321 321 321 322 324 327 328 328 328 328 327 327 327 325 317 315 317 318
328 327 328 329 326 328 327 323 324 326 325 324 319 320 323 322 322 322 324 325 327 329 329 329 329 327 327 327 323 315 317 316 317
327 327 327 327 328 324 324 322 322 323 322 325 322 324 324 323 322 323 324 327 327 329 330 329 329 328 327 326 326 314 314 315 314
326 326 325 324 325 324 320 319 319 320 322 325 325 327 325 323 322 322 324 326 327 328 329 330 328 328 327 327 327 316 313 313 313
326 326 326 326 326 325 325 322 321 320 321 321 324 325 324 322 321 321 321 323 326 328 328 329 328 328 327 327 326 317 314 313 313
327 327 327 325 326 325 326 326 324 326 324 321 325 326 324 325 324 323 322 323 326 327 328 329 328 328 327 327 325 318 315 314 314
326 326 327 327 327 327 326 326 326 325 325 322 325 326 326 325 327 327 326 325 324 326 328 327 328 328 327 327 326 318 317 315 313

GFSFLT1_850_thetae_108.txt.gz
Theta_e
334 331 327 334 340 340 335 333 326 316 317 317 317 317 316 316 317 317 316 326 316 316 316 317 317 317 316 316 316 315 315 315 314
335 337 331 338 340 341 337 335 326 316 318 318 318 318 317 317 317 319 317 318 317 317 317 318 319 318 317 317 316 317 316 315 315
336 338 335 335 337 340 339 336 323 317 319 320 319 318 318 317 317 318 324 318 317 317 318 319 320 319 318 318 318 318 317 316 316
335 335 336 333 335 339 338 333 324 317 320 321 320 319 318 318 318 318 324 318 317 318 319 320 320 320 319 320 320 318 317 317 317
334 334 335 335 335 337 337 334 323 318 320 320 320 321 319 322 317 317 322 318 318 318 318 320 320 320 320 321 320 319 318 319 319
334 334 335 336 336 337 336 334 323 319 318 320 321 320 324 325 322 322 317 317 317 318 318 320 321 321 321 322 321 320 319 320 320
337 336 334 337 336 337 336 333 330 321 319 319 321 320 328 328 326 324 318 318 318 318 318 320 321 321 321 322 323 323 321 321 320
334 335 334 336 336 336 336 333 332 323 328 327 325 325 329 328 323 321 319 319 319 318 318 319 321 322 321 321 323 324 323 323 323
336 337 334 334 336 336 335 334 331 329 325 325 324 326 324 326 326 322 319 320 320 319 319 320 321 322 322 320 321 323 323 324 325
333 331 333 333 335 336 336 335 334 329 322 318 322 325 324 325 325 323 319 319 320 320 321 320 321 323 323 321 320 321 321 322 323
330 331 332 333 334 335 336 335 335 331 323 321 319 320 320 321 323 321 322 320 319 321 323 324 325 324 324 322 322 322 322 321 324
327 327 329 328 328 332 334 334 335 332 329 323 321 321 321 319 319 319 319 321 321 320 323 324 324 324 325 325 322 325 323 326 328
328 328 327 327 329 328 332 332 333 333 330 328 324 318 320 319 322 321 319 320 322 321 320 325 325 326 326 324 325 327 326 327 320
329 329 328 330 329 328 329 330 330 331 331 332 327 326 323 321 322 322 322 321 321 322 322 322 326 327 326 325 325 326 325 324 317
328 328 328 327 326 326 328 329 329 330 329 330 329 324 321 327 325 323 323 324 323 321 322 324 326 327 327 326 326 326 326 326 317
326 328 326 325 326 329 329 329 331 329 329 331 329 327 324 322 326 323 320 321 322 324 322 322 323 327 328 328 328 327 326 326 321
325 325 325 326 327 331 329 329 329 330 328 327 327 327 324 322 323 323 321 319 319 320 322 322 323 326 328 328 329 328 327 326 326
325 325 326 326 327 326 328 328 328 329 327 326 326 326 325 324 322 320 320 320 319 319 321 322 321 324 326 328 329 329 328 327 326
326 326 326 326 327 327 327 327 326 325 325 325 323 325 323 323 323 322 324 320 321 322 321 321 321 321 325 327 328 328 328 327 326
324 324 324 326 326 325 327 327 326 326 327 326 325 321 321 321 321 323 324 323 322 322 321 321 321 322 323 324 326 325 325 326 326

GFSFLT1_850_thetae_111.txt.gz
Theta_e
332 333 324 319 335 338 334 335 324 315 317 317 319 318 317 317 329 330 323 330 316 316 316 317 317 317 316 316 316 315 315 315 314
335 336 328 329 337 340 336 334 326 316 317 317 317 316 316 326 328 329 328 319 317 316 317 318 318 318 317 317 317 317 316 315 315
336 336 337 333 339 339 340 337 328 317 317 318 318 318 317 323 328 329 331 318 317 317 318 319 319 318 318 318 318 318 316 315 316
335 336 337 336 334 337 340 337 331 318 318 319 319 318 318 326 328 329 332 318 317 317 317 319 320 319 319 320 320 318 317 317 317
334 334 335 336 334 335 339 337 331 321 318 320 319 319 319 319 327 327 330 321 317 317 317 318 319 320 320 321 320 319 318 319 319
332 332 333 334 335 335 337 337 335 324 318 321 320 320 320 325 327 328 325 319 318 317 318 319 320 320 320 321 321 320 319 320 320
335 337 335 333 335 336 337 338 335 327 320 320 320 320 323 330 328 328 324 318 318 318 318 319 320 321 321 321 322 323 321 321 320
336 336 337 335 335 336 337 337 336 332 326 329 321 320 324 330 329 329 324 318 318 318 318 319 320 321 322 321 322 323 324 323 323
335 336 336 335 334 336 336 336 336 333 329 329 329 329 330 330 329 328 325 320 319 319 319 318 319 321 322 322 320 322 323 324 324
335 335 337 336 334 334 336 336 336 335 332 330 329 328 328 328 327 327 326 321 319 320 320 321 319 319 321 322 320 320 320 320 323
333 334 335 333 333 333 336 336 336 335 332 330 328 326 327 327 326 326 325 323 319 319 320 321 327 325 322 322 322 320 320 322 320
330 330 332 333 333 334 335 336 336 335 335 330 324 323 324 324 324 324 324 324 321 320 319 320 323 324 326 327 328 324 322 324 325
331 333 333 332 332 331 331 332 334 334 333 333 327 320 322 322 322 322 323 323 323 321 320 319 320 324 324 324 325 324 324 324 327
328 330 330 332 332 332 332 331 331 332 331 331 332 328 321 319 319 319 323 323 322 323 322 320 320 320 325 326 325 323 326 327 325
326 327 327 328 330 331 330 329 329 330 333 331 331 330 330 326 324 323 322 323 324 324 321 322 320 321 323 325 326 325 324 325 325
324 322 320 321 324 326 326 329 331 331 331 331 330 329 329 331 326 321 324 323 323 324 325 322 320 320 321 323 326 326 326 326 325
322 322 321 319 327 325 326 327 331 329 329 330 328 329 328 329 328 327 324 324 323 322 323 320 319 319 320 320 322 326 327 327 327
328 327 326 326 326 328 327 326 329 329 330 328 329 327 326 326 327 326 325 324 322 323 320 319 319 319 320 320 321 325 327 328 328
328 327 327 327 327 327 328 328 328 328 328 329 328 326 326 325 325 325 325 324 323 322 320 320 320 319 320 320 320 322 325 328 328
327 328 326 326 326 327 327 327 327 327 327 327 326 326 326 325 325 324 324 324 324 324 325 325 321 319 321 321 321 321 324 326 327

GFSFLT1_850_thetae_114.txt.gz
Theta_e
334 331 330 319 327 336 336 337 328 315 316 318 319 319 318 322 329 329 329 323 315 316 316 317 317 316 316 316 315 315 315 314 314
336 334 332 323 322 337 337 334 328 315 316 317 318 317 316 323 325 328 324 324 316 316 317 318 318 317 317 317 317 317 315 315 314
336 336 336 331 331 338 340 335 334 319 316 317 317 316 316 321 326 329 325 325 317 316 317 318 318 318 317 318 318 317 316 315 315
334 335 336 337 335 337 338 339 337 326 317 317 318 318 317 321 326 325 324 322 317 317 317 318 319 318 318 319 320 318 317 317 317
330 332 333 335 336 335 335 338 338 331 318 318 319 319 318 320 327 327 328 325 317 317 317 318 319 319 319 320 320 318 318 319 319
328 328 329 331 333 334 334 337 338 335 323 318 320 319 319 319 325 323 325 325 318 316 316 317 318 319 319 320 321 320 319 320 319
327 335 336 335 332 333 335 336 337 336 330 319 319 320 320 322 328 326 327 326 318 317 316 316 317 318 319 320 321 322 321 320 320
332 335 336 337 335 333 335 336 337 337 334 324 318 319 320 326 330 329 328 325 319 318 317 317 318 318 319 320 319 321 322 322 322
336 335 335 333 333 333 334 335 336 337 335 328 323 322 320 325 330 329 328 326 321 318 318 318 318 319 320 321 320 318 320 322 323
335 335 335 336 335 334 333 335 336 336 335 332 327 329 328 328 330 329 328 327 323 319 319 319 319 319 319 321 321 319 318 319 321
333 333 334 335 336 335 332 332 335 335 335 335 329 329 328 328 327 327 327 326 323 320 318 318 319 321 320 320 321 321 318 319 320
333 332 332 335 334 332 331 333 334 335 335 334 332 330 329 327 327 327 326 325 323 321 320 318 318 320 324 327 327 327 324 321 322
328 329 329 330 331 332 332 334 335 336 335 335 332 333 326 324 325 323 324 325 323 320 319 319 319 319 320 322 323 326 327 324 324
330 329 329 329 331 331 330 331 330 330 331 331 331 331 332 326 322 322 322 322 322 322 322 320 319 319 319 320 323 324 323 321 324
330 330 329 330 329 329 328 328 328 329 329 330 330 330 332 331 326 321 320 320 322 323 323 322 320 319 319 319 320 323 324 323 324
328 326 327 328 327 324 325 322 325 328 329 330 330 329 329 331 331 329 328 324 321 322 323 323 323 320 320 319 319 320 322 324 323
324 324 323 323 322 321 321 321 324 326 329 330 330 329 328 327 329 328 329 329 327 323 323 323 323 321 320 319 319 319 320 321 324
325 323 322 322 322 324 322 324 326 326 326 328 328 328 327 326 327 326 326 326 326 327 325 323 324 323 321 319 319 320 320 320 323
328 326 325 326 325 325 326 325 327 326 327 327 329 328 327 327 326 325 325 326 325 324 324 324 324 322 322 320 319 319 320 320 320
329 327 328 327 327 327 326 326 327 328 327 327 327 327 328 328 327 326 325 325 324 324 324 324 323 322 321 321 319 320 320 320 320

GFSFLT1_850_thetae_117.txt.gz
Theta_e
336 332 331 322 326 335 336 335 329 315 315 318 318 318 320 323 328 330 329 323 316 315 316 317 317 316 316 315 315 316 315 314 313
336 335 332 327 320 329 337 335 332 317 316 317 319 318 318 321 322 322 319 320 317 316 317 317 317 317 317 316 317 317 315 314 314
333 335 334 333 325 328 339 336 334 326 316 317 317 317 316 322 324 325 320 319 317 316 317 317 318 318 317 318 318 317 316 315 315
332 333 334 335 335 333 338 339 336 335 319 316 317 317 316 320 323 323 324 323 319 316 316 317 318 318 317 318 319 317 317 316 316
329 330 331 333 335 336 335 336 339 337 329 317 318 318 318 318 323 324 325 326 325 317 316 316 317 318 318 318 320 318 318 319 319
328 328 328 330 331 333 334 334 335 338 333 322 317 319 319 318 322 324 325 324 324 319 316 316 317 318 318 319 320 320 319 319 319
328 327 328 334 333 331 332 334 334 338 336 330 318 319 319 319 320 324 323 323 323 318 316 316 316 318 319 319 319 320 321 319 320
331 327 330 335 335 335 333 333 334 336 337 334 325 318 320 320 321 326 328 325 324 320 317 317 317 317 318 319 319 319 321 321 321
335 334 333 334 333 333 333 333 333 335 336 336 333 322 319 320 323 327 329 327 326 323 318 318 317 317 317 318 319 319 318 320 322
336 335 335 335 335 335 333 333 333 334 335 336 335 330 323 325 322 329 330 329 327 325 320 318 318 318 318 318 318 320 318 318 319
335 336 335 334 334 335 335 334 333 333 335 335 335 332 327 329 328 327 329 329 328 325 322 319 318 318 319 318 318 319 320 318 318
334 334 334 331 332 334 334 334 331 333 334 335 334 332 329 330 328 328 327 327 326 325 323 320 318 318 317 319 322 323 321 322 320
331 331 333 332 333 334 335 332 331 332 333 334 335 334 332 330 329 327 327 327 326 325 324 322 320 319 319 319 320 327 326 326 326
329 331 331 330 330 330 330 331 332 333 333 333 334 334 331 331 330 328 325 326 325 324 323 321 321 320 319 319 319 320 324 322 324
329 328 330 329 329 329 330 331 330 329 328 329 329 329 328 329 330 329 324 324 322 322 322 322 321 321 320 320 320 319 320 322 322
327 326 328 329 330 330 330 328 326 324 325 326 326 328 328 329 330 330 330 327 321 322 321 321 322 322 321 322 320 320 319 320 322
325 327 328 328 329 329 328 325 324 323 322 322 324 325 328 329 329 329 329 329 328 328 328 323 322 322 323 323 322 320 320 320 322
321 324 327 325 327 327 327 323 321 321 323 326 325 328 328 327 327 326 327 327 326 325 326 328 326 324 323 324 323 321 319 319 321
318 322 325 325 324 322 322 323 324 325 325 326 326 326 327 326 326 326 326 325 325 325 325 325 325 326 325 323 324 323 321 319 319
321 321 321 325 323 323 325 324 325 326 326 326 326 326 326 326 327 327 327 326 326 325 324 324 324 324 324 324 324 324 323 322 320

GFSFLT1_850_thetae_120.txt.gz
Theta_e
335 333 330 328 322 335 336 334 331 319 315 319 318 324 326 328 325 322 321 319 315 315 315 316 316 316 315 315 315 315 315 314 313
332 335 332 331 323 325 335 335 335 325 315 317 318 318 321 323 321 323 322 320 318 315 315 316 317 317 316 316 317 317 315 314 314
333 332 335 333 330 321 330 337 333 332 317 316 318 318 318 319 320 319 319 319 319 316 316 316 317 317 317 317 318 317 315 314 314
332 332 332 334 334 328 328 337 337 334 329 316 317 317 317 317 320 320 320 320 320 317 316 316 317 317 317 317 318 317 316 316 316
330 330 330 332 333 335 334 336 338 337 335 324 316 317 316 316 320 321 321 321 320 317 316 316 316 317 317 317 318 318 317 318 318
330 329 328 328 330 332 335 335 335 336 338 333 320 317 318 317 319 320 323 323 323 320 317 316 315 316 317 317 318 319 318 318 319
328 329 329 328 327 328 330 333 334 334 336 337 330 318 318 319 318 320 323 321 322 322 318 316 315 316 316 317 317 318 320 319 320
332 332 331 328 328 331 333 331 333 333 334 337 336 327 318 319 319 320 321 322 323 322 320 317 316 316 316 316 317 318 319 320 320
337 336 335 330 330 332 333 333 332 332 333 335 337 334 324 319 320 319 322 325 327 325 323 318 317 317 316 316 317 318 317 318 320
335 336 335 334 334 333 333 333 332 332 333 334 335 336 333 324 319 320 324 326 327 328 326 323 318 318 317 317 317 317 318 317 317
333 335 336 334 335 334 333 334 335 332 332 333 335 335 336 333 322 322 324 326 327 329 327 325 321 318 318 318 318 317 318 319 317
331 331 331 335 336 335 334 333 333 334 333 333 334 335 335 334 328 327 325 328 328 329 328 326 323 321 318 318 318 319 318 319 320
319 329 330 331 332 333 332 331 331 332 333 331 331 333 334 334 329 329 329 329 329 327 327 326 325 322 320 319 322 323 323 324 323
317 319 326 329 329 330 331 331 332 332 332 331 331 332 334 334 334 329 328 327 327 327 326 326 325 324 322 321 320 323 325 326 326
317 321 320 326 327 329 329 330 330 330 330 331 333 332 330 329 329 331 330 328 324 324 326 325 324 323 322 321 321 320 319 320 324
311 317 320 321 326 327 328 328 328 329 330 329 328 327 327 326 326 326 327 328 328 326 324 322 322 322 322 322 321 321 321 320 320
306 307 312 319 325 325 326 327 328 329 328 324 323 325 326 325 326 328 328 327 326 329 328 324 322 322 321 321 321 321 323 322 321
309 306 307 314 323 325 326 327 328 327 325 322 323 325 324 325 325 323 324 324 324 326 328 328 328 327 328 327 322 322 322 322 323
316 316 312 315 319 323 325 326 326 324 322 324 324 326 327 327 326 325 325 324 324 326 326 325 325 325 326 326 327 327 324 323 323
315 318 317 319 320 320 324 325 324 323 323 323 325 326 326 326 326 327 326 326 326 326 325 325 325 325 324 324 324 324 324 324 324

GFSFLT1_850_thetae_123.txt.gz
Theta_e
333 334 332 330 323 330 336 333 335 327 317 319 320 324 322 321 322 322 325 321 316 315 315 315 316 316 315 315 315 315 315 313 313
331 332 335 331 330 323 334 335 334 330 317 316 320 322 322 321 320 320 319 319 319 316 315 316 316 316 316 316 316 316 315 313 313
331 333 331 334 333 329 322 333 335 334 328 316 319 319 320 319 318 319 319 318 319 316 315 316 316 316 316 316 317 317 315 314 314
331 331 331 331 333 334 327 323 334 335 333 322 316 319 319 318 317 319 320 320 320 318 316 316 316 316 316 316 317 317 316 315 315
332 330 330 329 331 333 335 331 331 338 336 334 319 316 318 317 317 318 320 320 320 320 317 316 315 316 316 316 317 318 317 317 317
330 331 331 330 329 329 332 334 334 335 337 337 335 319 317 317 316 317 320 321 321 320 320 316 315 315 316 316 317 317 318 317 319
335 329 329 329 329 329 328 330 332 334 334 335 337 333 318 317 318 317 319 321 322 321 319 318 316 315 315 316 316 317 318 318 318
335 336 334 331 330 330 328 329 329 330 333 333 334 337 331 318 318 319 318 320 321 320 321 320 317 316 315 316 316 317 317 319 319
332 333 334 336 335 333 329 332 333 331 331 331 333 335 336 331 319 319 319 319 321 322 323 322 321 317 316 316 316 316 317 317 318
331 333 332 333 333 334 333 332 332 333 333 331 331 333 335 335 332 319 320 319 320 324 328 326 324 320 317 317 317 316 317 318 317
315 326 333 332 332 333 333 334 334 333 332 333 331 332 333 335 335 330 320 320 321 325 326 327 327 324 319 317 317 317 317 317 318
308 309 315 325 331 332 333 333 334 333 333 333 333 332 333 334 335 335 328 322 322 325 327 327 327 326 324 320 317 317 318 318 318
308 308 308 312 321 330 330 331 334 334 333 332 332 332 332 333 334 334 334 327 327 325 329 328 328 327 325 323 322 325 324 320 319
307 307 308 312 318 321 328 330 331 332 332 331 331 332 332 330 331 332 334 331 328 328 329 329 328 327 326 325 324 323 323 326 325
306 306 309 311 318 320 321 327 328 329 330 330 330 331 331 330 331 332 333 328 330 329 329 329 328 327 326 325 324 322 322 321 320
307 306 305 306 308 315 318 323 327 328 328 328 329 329 329 331 331 330 328 326 328 328 328 327 327 325 325 325 324 322 322 322 322
309 310 311 309 308 306 311 321 326 325 326 327 328 329 329 328 327 326 326 327 327 327 328 328 327 327 324 323 322 322 322 321 321
310 311 314 315 313 311 307 317 324 325 326 326 327 326 325 324 324 324 325 326 327 327 325 325 327 328 328 327 324 322 322 324 322
309 312 312 316 318 318 317 315 321 324 325 326 326 326 325 325 326 326 325 324 324 323 323 324 326 327 326 326 326 326 327 326 323
310 312 313 312 315 319 320 320 319 320 323 323 324 324 323 325 326 326 325 325 325 325 325 325 326 325 325 325 325 324 324 324 324

GFSFLT1_850_thetae_126.txt.gz
Theta_e
332 332 333 333 329 325 327 336 334 336 328 317 321 321 325 325 324 324 328 324 318 314 314 315 315 315 315 315 314 315 315 313 314
332 331 332 333 333 330 324 332 335 333 330 319 319 321 323 321 319 319 319 320 318 317 315 315 316 316 316 316 316 316 315 313 313
333 332 332 332 332 333 331 324 329 335 334 328 316 320 321 321 320 318 318 318 317 317 315 315 316 316 316 316 316 317 315 314 313
335 333 331 331 331 331 334 333 325 327 336 333 326 316 320 319 319 318 318 319 318 317 316 315 316 316 316 316 316 317 316 315 314
332 332 332 331 331 330 331 333 334 327 329 337 334 325 317 319 318 318 317 320 320 318 317 316 315 315 315 316 316 317 317 316 316
336 336 332 330 330 331 330 330 331 333 334 335 337 335 327 317 318 317 317 319 320 320 318 317 316 315 315 315 316 317 317 317 317
335 335 335 334 330 328 329 329 329 330 332 334 335 336 336 329 317 317 316 318 320 321 321 319 318 315 315 315 315 316 317 318 317
334 335 333 334 335 335 334 331 329 328 328 330 333 333 333 335 330 317 317 317 319 321 324 320 319 317 315 315 315 316 316 317 318
321 328 333 332 332 333 333 335 334 329 330 332 330 331 332 332 335 330 318 318 318 320 321 327 321 321 317 316 316 315 316 317 317
308 309 320 329 331 331 333 333 333 333 331 330 331 332 331 331 333 335 330 319 319 319 321 325 328 323 322 318 317 316 316 316 317
307 308 308 309 319 328 332 332 333 333 333 333 332 332 332 332 332 332 335 328 320 320 322 323 326 328 325 323 318 317 317 317 317
305 306 306 307 308 309 313 324 331 330 331 332 333 332 332 332 332 332 333 335 325 321 321 322 326 326 328 327 324 319 317 317 317
307 306 306 306 306 307 308 314 320 329 330 330 332 332 332 332 332 332 331 333 334 326 321 321 325 327 327 327 328 328 326 324 320
306 306 306 306 306 306 308 308 315 320 328 330 331 331 331 331 331 332 331 331 332 333 327 325 323 328 328 328 327 326 326 326 325
305 305 306 306 305 305 305 308 310 317 320 327 328 328 329 330 330 331 331 330 330 331 331 330 326 325 325 329 328 327 326 325 324
309 308 309 308 308 307 308 307 306 311 317 326 327 328 328 328 329 330 329 330 330 331 331 327 329 327 325 326 328 327 326 326 323
310 310 309 310 311 313 314 316 312 312 312 325 325 326 327 327 328 329 329 330 329 328 326 328 328 328 328 327 328 326 324 324 323
310 310 310 312 313 313 314 316 320 319 320 322 324 325 326 327 326 327 329 329 326 326 326 326 327 327 328 327 325 324 325 324 323
310 311 312 312 313 313 313 314 315 319 321 323 322 323 324 325 324 324 324 324 325 326 327 327 326 325 325 326 328 327 327 327 327
310 310 312 312 313 312 312 313 314 315 320 320 322 322 324 325 324 324 325 325 325 324 324 324 323 325 326 326 325 325 325 325 325